Wetterdaten: Mittwoch, 01.03.2017
Datum Zeit Temp. A. Feuchte A. Luftdruck Regen Wind Richtung Richtung Sonnenschein ET UV Solar Taupunkt Windchill Windben Empfang
01.03.2017 00:00 4,4 C 86 % 1002,1 hPa 0,0 l/m 14,1 km/h (3 Bft) S-SW 207 0 min 0,000 mm 0,0 UV-I 0 W/m 2,3 C -1,2 C 20,9 km/h (4 Bft) 95,74 %
01.03.2017 00:02 4,4 C 86 % 1002,1 hPa 0,0 l/m 9,7 km/h (2 Bft) SW 226 0 min 0,000 mm 0,0 UV-I 0 W/m 2,3 C 1,6 C 9,7 km/h (2 Bft) 100,00 %
01.03.2017 00:04 4,4 C 86 % 1002,1 hPa 0,0 l/m 9,3 km/h (2 Bft) W-SW 241 0 min 0,000 mm 0,0 UV-I 0 W/m 2,3 C 1,9 C 14,5 km/h (3 Bft) 95,74 %
01.03.2017 00:06 4,3 C 86 % 1002,1 hPa 0,0 l/m 10,5 km/h (2 Bft) S-SW 211 0 min 0,000 mm 0,0 UV-I 0 W/m 2,2 C 0,9 C 16,1 km/h (3 Bft) 97,87 %
01.03.2017 00:08 4,3 C 87 % 1002,2 hPa 0,0 l/m 11,5 km/h (2 Bft) SW 216 0 min 0,000 mm 0,0 UV-I 0 W/m 2,3 C 0,3 C 20,9 km/h (4 Bft) 97,87 %
01.03.2017 00:10 4,3 C 87 % 1002,2 hPa 0,0 l/m 11,1 km/h (2 Bft) S-SW 199 0 min 0,000 mm 0,0 UV-I 0 W/m 2,3 C 0,5 C 19,3 km/h (3 Bft) 95,74 %
01.03.2017 00:12 4,3 C 87 % 1002,2 hPa 0,0 l/m 9,7 km/h (2 Bft) S-SW 211 0 min 0,000 mm 0,0 UV-I 0 W/m 2,3 C 1,5 C 17,7 km/h (3 Bft) 97,92 %
01.03.2017 00:14 4,3 C 87 % 1002,2 hPa 0,0 l/m 9,4 km/h (2 Bft) S-SW 212 0 min 0,000 mm 0,0 UV-I 0 W/m 2,3 C 1,7 C 20,9 km/h (4 Bft) 91,49 %
01.03.2017 00:16 4,2 C 87 % 1002,2 hPa 0,0 l/m 10,6 km/h (2 Bft) S 185 0 min 0,000 mm 0,0 UV-I 0 W/m 2,2 C 0,8 C 20,9 km/h (4 Bft) 97,87 %
01.03.2017 00:18 4,2 C 87 % 1002,2 hPa 0,0 l/m 8,8 km/h (2 Bft) SW 219 0 min 0,000 mm 0,0 UV-I 0 W/m 2,2 C 2,1 C 16,1 km/h (3 Bft) 97,87 %
01.03.2017 00:20 4,2 C 87 % 1002,2 hPa 0,0 l/m 12,5 km/h (3 Bft) S-SW 199 0 min 0,000 mm 0,0 UV-I 0 W/m 2,2 C -0,5 C 22,5 km/h (4 Bft) 96,00 %
01.03.2017 00:22 4,2 C 87 % 1002,2 hPa 0,0 l/m 12,5 km/h (3 Bft) W-SW 241 0 min 0,000 mm 0,0 UV-I 0 W/m 2,2 C -0,5 C 19,3 km/h (3 Bft) 97,92 %
01.03.2017 00:24 4,2 C 87 % 1002,2 hPa 0,0 l/m 13,1 km/h (3 Bft) SW 221 0 min 0,000 mm 0,0 UV-I 0 W/m 2,2 C -0,8 C 19,3 km/h (3 Bft) 97,87 %
01.03.2017 00:26 4,2 C 87 % 1002,3 hPa 0,0 l/m 13,7 km/h (3 Bft) S 186 0 min 0,000 mm 0,0 UV-I 0 W/m 2,2 C -1,2 C 22,5 km/h (4 Bft) 100,00 %
01.03.2017 00:28 4,3 C 86 % 1002,4 hPa 0,0 l/m 13,0 km/h (3 Bft) S-SW 211 0 min 0,000 mm 0,0 UV-I 0 W/m 2,2 C -0,7 C 20,9 km/h (4 Bft) 97,87 %
01.03.2017 00:30 4,3 C 86 % 1002,4 hPa 0,0 l/m 16,0 km/h (3 Bft) S-SW 201 0 min 0,000 mm 0,0 UV-I 0 W/m 2,2 C -2,3 C 25,7 km/h (4 Bft) 100,00 %
01.03.2017 00:32 4,4 C 85 % 1002,4 hPa 0,0 l/m 24,1 km/h (4 Bft) SW 221 0 min 0,000 mm 0,0 UV-I 0 W/m 2,1 C -5,5 C 30,6 km/h (5 Bft) 97,96 %
01.03.2017 00:34 4,5 C 84 % 1002,5 hPa 0,0 l/m 19,2 km/h (3 Bft) W-SW 251 0 min 0,000 mm 0,0 UV-I 0 W/m 2,0 C -3,5 C 29,0 km/h (5 Bft) 97,87 %
01.03.2017 00:36 4,6 C 84 % 1002,5 hPa 0,0 l/m 16,2 km/h (3 Bft) S-SW 193 0 min 0,000 mm 0,0 UV-I 0 W/m 2,1 C -2,0 C 25,7 km/h (4 Bft) 100,00 %
01.03.2017 00:38 4,7 C 84 % 1002,5 hPa 0,0 l/m 15,8 km/h (3 Bft) S-SW 196 0 min 0,000 mm 0,0 UV-I 0 W/m 2,2 C -1,7 C 24,1 km/h (4 Bft) 100,00 %
01.03.2017 00:40 4,7 C 83 % 1002,5 hPa 0,0 l/m 14,6 km/h (3 Bft) SW 232 0 min 0,000 mm 0,0 UV-I 0 W/m 2,1 C -1,1 C 22,5 km/h (4 Bft) 100,00 %
01.03.2017 00:42 4,7 C 83 % 1002,6 hPa 0,0 l/m 18,0 km/h (3 Bft) S-SW 198 0 min 0,000 mm 0,0 UV-I 0 W/m 2,1 C -2,7 C 27,4 km/h (4 Bft) 98,00 %
01.03.2017 00:44 4,7 C 83 % 1002,6 hPa 0,0 l/m 20,1 km/h (4 Bft) S-SO 165 0 min 0,000 mm 0,0 UV-I 0 W/m 2,1 C -3,6 C 30,6 km/h (5 Bft) 97,87 %
01.03.2017 00:46 4,8 C 83 % 1002,7 hPa 0,0 l/m 16,7 km/h (3 Bft) W-SW 240 0 min 0,000 mm 0,0 UV-I 0 W/m 2,2 C -2,0 C 24,1 km/h (4 Bft) 100,00 %
01.03.2017 00:48 4,8 C 82 % 1002,7 hPa 0,0 l/m 18,6 km/h (3 Bft) S-SW 209 0 min 0,000 mm 0,0 UV-I 0 W/m 2,0 C -2,9 C 25,7 km/h (4 Bft) 100,00 %
01.03.2017 00:50 4,8 C 83 % 1002,8 hPa 0,0 l/m 17,5 km/h (3 Bft) S-SW 211 0 min 0,000 mm 0,0 UV-I 0 W/m 2,2 C -2,4 C 25,7 km/h (4 Bft) 94,74 %
01.03.2017 00:52 4,8 C 82 % 1002,8 hPa 0,0 l/m 20,7 km/h (4 Bft) SW 227 0 min 0,000 mm 0,0 UV-I 0 W/m 2,0 C -3,7 C 37,0 km/h (5 Bft) 97,87 %
01.03.2017 00:54 4,8 C 83 % 1002,8 hPa 0,0 l/m 21,2 km/h (4 Bft) W-SW 238 0 min 0,000 mm 0,0 UV-I 0 W/m 2,2 C -3,9 C 30,6 km/h (5 Bft) 100,00 %
01.03.2017 00:56 4,8 C 82 % 1002,7 hPa 0,0 l/m 18,9 km/h (3 Bft) W-SW 240 0 min 0,000 mm 0,0 UV-I 0 W/m 2,0 C -3,0 C 29,0 km/h (5 Bft) 97,87 %
01.03.2017 00:58 4,8 C 82 % 1002,6 hPa 0,0 l/m 19,7 km/h (3 Bft) SW 225 0 min 0,000 mm 0,0 UV-I 0 W/m 2,0 C -3,3 C 29,0 km/h (5 Bft) 100,00 %
01.03.2017 01:00 4,8 C 83 % 1002,5 hPa 0,0 l/m 14,3 km/h (3 Bft) S-SW 208 0 min 0,025 mm 0,0 UV-I 0 W/m 2,2 C -0,8 C 24,1 km/h (4 Bft) 100,00 %
01.03.2017 01:02 4,8 C 82 % 1002,5 hPa 0,0 l/m 17,4 km/h (3 Bft) W-SW 243 0 min 0,000 mm 0,0 UV-I 0 W/m 2,0 C -2,3 C 30,6 km/h (5 Bft) 97,87 %
01.03.2017 01:04 4,8 C 83 % 1002,6 hPa 0,0 l/m 14,9 km/h (3 Bft) SW 234 0 min 0,000 mm 0,0 UV-I 0 W/m 2,2 C -1,1 C 22,5 km/h (4 Bft) 100,00 %
01.03.2017 01:06 4,8 C 83 % 1002,6 hPa 0,0 l/m 15,6 km/h (3 Bft) W-SW 240 0 min 0,000 mm 0,0 UV-I 0 W/m 2,2 C -1,5 C 20,9 km/h (4 Bft) 97,87 %
01.03.2017 01:08 4,8 C 83 % 1002,6 hPa 0,0 l/m 13,1 km/h (3 Bft) SW 232 0 min 0,000 mm 0,0 UV-I 0 W/m 2,2 C -0,1 C 20,9 km/h (4 Bft) 100,00 %
01.03.2017 01:10 4,7 C 83 % 1002,5 hPa 0,0 l/m 14,7 km/h (3 Bft) SW 221 0 min 0,000 mm 0,0 UV-I 0 W/m 2,1 C -1,1 C 25,7 km/h (4 Bft) 100,00 %
01.03.2017 01:12 4,7 C 83 % 1002,5 hPa 0,0 l/m 17,3 km/h (3 Bft) SW 232 0 min 0,000 mm 0,0 UV-I 0 W/m 2,1 C -2,4 C 24,1 km/h (4 Bft) 100,00 %
01.03.2017 01:14 4,7 C 83 % 1002,4 hPa 0,0 l/m 17,5 km/h (3 Bft) W-SW 241 0 min 0,000 mm 0,0 UV-I 0 W/m 2,1 C -2,5 C 32,2 km/h (5 Bft) 100,00 %
01.03.2017 01:16 4,7 C 83 % 1002,5 hPa 0,0 l/m 13,2 km/h (3 Bft) SW 217 0 min 0,000 mm 0,0 UV-I 0 W/m 2,1 C -0,3 C 19,3 km/h (3 Bft) 100,00 %
01.03.2017 01:18 4,7 C 83 % 1002,5 hPa 0,0 l/m 18,1 km/h (3 Bft) SW 223 0 min 0,000 mm 0,0 UV-I 0 W/m 2,1 C -2,8 C 29,0 km/h (5 Bft) 100,00 %
01.03.2017 01:20 4,7 C 83 % 1002,6 hPa 0,0 l/m 15,8 km/h (3 Bft) S-SW 200 0 min 0,000 mm 0,0 UV-I 0 W/m 2,1 C -1,7 C 24,1 km/h (4 Bft) 97,87 %
01.03.2017 01:22 4,7 C 83 % 1002,6 hPa 0,0 l/m 18,8 km/h (3 Bft) SW 229 0 min 0,000 mm 0,0 UV-I 0 W/m 2,1 C -3,1 C 25,7 km/h (4 Bft) 97,87 %
01.03.2017 01:24 4,7 C 83 % 1002,7 hPa 0,0 l/m 18,3 km/h (3 Bft) S 186 0 min 0,000 mm 0,0 UV-I 0 W/m 2,1 C -2,9 C 30,6 km/h (5 Bft) 96,00 %
01.03.2017 01:26 4,7 C 83 % 1002,7 hPa 0,0 l/m 15,2 km/h (3 Bft) S-SW 199 0 min 0,000 mm 0,0 UV-I 0 W/m 2,1 C -1,4 C 22,5 km/h (4 Bft) 95,74 %
01.03.2017 01:28 4,7 C 83 % 1002,8 hPa 0,0 l/m 14,3 km/h (3 Bft) W-SW 237 0 min 0,000 mm 0,0 UV-I 0 W/m 2,1 C -0,9 C 20,9 km/h (4 Bft) 100,00 %
01.03.2017 01:30 4,7 C 83 % 1002,7 hPa 0,0 l/m 16,6 km/h (3 Bft) SW 225 0 min 0,000 mm 0,0 UV-I 0 W/m 2,1 C -2,1 C 27,4 km/h (4 Bft) 100,00 %
01.03.2017 01:32 4,7 C 83 % 1002,6 hPa 0,0 l/m 17,1 km/h (3 Bft) S 180 0 min 0,000 mm 0,0 UV-I 0 W/m 2,1 C -2,3 C 35,4 km/h (5 Bft) 100,00 %
01.03.2017 01:34 4,7 C 83 % 1002,7 hPa 0,0 l/m 13,5 km/h (3 Bft) S-SW 203 0 min 0,000 mm 0,0 UV-I 0 W/m 2,1 C -0,5 C 24,1 km/h (4 Bft) 97,87 %
01.03.2017 01:36 4,7 C 83 % 1002,7 hPa 0,0 l/m 16,8 km/h (3 Bft) S-SW 203 0 min 0,000 mm 0,0 UV-I 0 W/m 2,1 C -2,2 C 25,7 km/h (4 Bft) 97,37 %
01.03.2017 01:38 4,7 C 83 % 1002,7 hPa 0,0 l/m 13,6 km/h (3 Bft) S-SW 206 0 min 0,000 mm 0,0 UV-I 0 W/m 2,1 C -0,5 C 22,5 km/h (4 Bft) 97,87 %
01.03.2017 01:40 4,7 C 83 % 1002,7 hPa 0,0 l/m 13,1 km/h (3 Bft) W-SW 252 0 min 0,000 mm 0,0 UV-I 0 W/m 2,1 C -0,2 C 22,5 km/h (4 Bft) 97,87 %
01.03.2017 01:42 4,7 C 83 % 1002,7 hPa 0,0 l/m 13,2 km/h (3 Bft) W-SW 243 0 min 0,000 mm 0,0 UV-I 0 W/m 2,1 C -0,3 C 22,5 km/h (4 Bft) 97,87 %
01.03.2017 01:44 4,7 C 83 % 1002,7 hPa 0,0 l/m 15,1 km/h (3 Bft) W-SW 239 0 min 0,000 mm 0,0 UV-I 0 W/m 2,1 C -1,3 C 24,1 km/h (4 Bft) 100,00 %
01.03.2017 01:46 4,7 C 83 % 1002,7 hPa 0,0 l/m 15,9 km/h (3 Bft) SW 227 0 min 0,000 mm 0,0 UV-I 0 W/m 2,1 C -1,7 C 25,7 km/h (4 Bft) 98,00 %
01.03.2017 01:48 4,7 C 83 % 1002,7 hPa 0,0 l/m 14,0 km/h (3 Bft) S-SW 207 0 min 0,000 mm 0,0 UV-I 0 W/m 2,1 C -0,8 C 20,9 km/h (4 Bft) 95,74 %
01.03.2017 01:50 4,7 C 83 % 1002,8 hPa 0,0 l/m 15,6 km/h (3 Bft) SW 215 0 min 0,000 mm 0,0 UV-I 0 W/m 2,1 C -1,6 C 22,5 km/h (4 Bft) 100,00 %
01.03.2017 01:52 4,7 C 83 % 1002,7 hPa 0,0 l/m 14,7 km/h (3 Bft) SW 214 0 min 0,000 mm 0,0 UV-I 0 W/m 2,1 C -1,1 C 22,5 km/h (4 Bft) 100,00 %
01.03.2017 01:54 4,7 C 83 % 1002,7 hPa 0,0 l/m 14,1 km/h (3 Bft) S-SW 207 0 min 0,000 mm 0,0 UV-I 0 W/m 2,1 C -0,8 C 20,9 km/h (4 Bft) 97,87 %
01.03.2017 01:56 4,7 C 83 % 1002,7 hPa 0,0 l/m 14,1 km/h (3 Bft) SW 227 0 min 0,000 mm 0,0 UV-I 0 W/m 2,1 C -0,8 C 24,1 km/h (4 Bft) 100,00 %
01.03.2017 01:58 4,7 C 83 % 1002,6 hPa 0,0 l/m 12,0 km/h (2 Bft) S 173 0 min 0,000 mm 0,0 UV-I 0 W/m 2,1 C 0,4 C 19,3 km/h (3 Bft) 96,00 %
01.03.2017 02:00 4,7 C 82 % 1002,6 hPa 0,0 l/m 15,2 km/h (3 Bft) SW 236 0 min 0,026 mm 0,0 UV-I 0 W/m 1,9 C -1,4 C 25,7 km/h (4 Bft) 93,88 %
01.03.2017 02:02 4,8 C 83 % 1002,5 hPa 0,0 l/m 14,3 km/h (3 Bft) SW 217 0 min 0,000 mm 0,0 UV-I 0 W/m 2,2 C -0,8 C 20,9 km/h (4 Bft) 94,44 %
01.03.2017 02:04 4,8 C 82 % 1002,6 hPa 0,0 l/m 14,4 km/h (3 Bft) SW 219 0 min 0,000 mm 0,0 UV-I 0 W/m 2,0 C -0,9 C 20,9 km/h (4 Bft) 95,74 %
01.03.2017 02:06 4,8 C 82 % 1002,4 hPa 0,0 l/m 10,9 km/h (2 Bft) S-SW 209 0 min 0,000 mm 0,0 UV-I 0 W/m 2,0 C 1,2 C 16,1 km/h (3 Bft) 97,87 %
01.03.2017 02:08 4,8 C 82 % 1002,4 hPa 0,0 l/m 11,8 km/h (2 Bft) S-SW 205 0 min 0,000 mm 0,0 UV-I 0 W/m 2,0 C 0,7 C 20,9 km/h (4 Bft) 93,62 %
01.03.2017 02:10 4,8 C 82 % 1002,4 hPa 0,0 l/m 13,9 km/h (3 Bft) SW 232 0 min 0,000 mm 0,0 UV-I 0 W/m 2,0 C -0,6 C 22,5 km/h (4 Bft) 95,74 %
01.03.2017 02:12 4,8 C 82 % 1002,3 hPa 0,0 l/m 16,1 km/h (3 Bft) SW 235 0 min 0,000 mm 0,0 UV-I 0 W/m 2,0 C -1,7 C 25,7 km/h (4 Bft) 93,62 %
01.03.2017 02:14 4,8 C 82 % 1002,4 hPa 0,0 l/m 15,3 km/h (3 Bft) SW 219 0 min 0,000 mm 0,0 UV-I 0 W/m 2,0 C -1,3 C 22,5 km/h (4 Bft) 95,74 %
01.03.2017 02:16 4,8 C 82 % 1002,5 hPa 0,0 l/m 15,8 km/h (3 Bft) S-SW 213 0 min 0,000 mm 0,0 UV-I 0 W/m 2,0 C -1,6 C 24,1 km/h (4 Bft) 92,00 %
01.03.2017 02:18 4,7 C 82 % 1002,4 hPa 0,0 l/m 16,4 km/h (3 Bft) W-SW 244 0 min 0,000 mm 0,0 UV-I 0 W/m 1,9 C -2,0 C 30,6 km/h (5 Bft) 96,00 %
01.03.2017 02:20 4,8 C 82 % 1002,5 hPa 0,0 l/m 16,4 km/h (3 Bft) W-SW 248 0 min 0,000 mm 0,0 UV-I 0 W/m 2,0 C -1,9 C 27,4 km/h (4 Bft) 95,74 %
01.03.2017 02:22 4,8 C 82 % 1002,4 hPa 0,0 l/m 13,7 km/h (3 Bft) S-SW 211 0 min 0,000 mm 0,0 UV-I 0 W/m 2,0 C -0,5 C 27,4 km/h (4 Bft) 97,87 %
01.03.2017 02:24 4,8 C 82 % 1002,4 hPa 0,0 l/m 16,0 km/h (3 Bft) SW 225 0 min 0,000 mm 0,0 UV-I 0 W/m 2,0 C -1,7 C 24,1 km/h (4 Bft) 97,87 %
01.03.2017 02:26 4,8 C 82 % 1002,4 hPa 0,0 l/m 14,3 km/h (3 Bft) SW 228 0 min 0,000 mm 0,0 UV-I 0 W/m 2,0 C -0,8 C 27,4 km/h (4 Bft) 95,74 %
01.03.2017 02:28 4,8 C 82 % 1002,4 hPa 0,0 l/m 18,1 km/h (3 Bft) W-SW 239 0 min 0,000 mm 0,0 UV-I 0 W/m 2,0 C -2,6 C 30,6 km/h (5 Bft) 97,87 %
01.03.2017 02:30 4,8 C 82 % 1002,4 hPa 0,0 l/m 17,7 km/h (3 Bft) W-SW 237 0 min 0,000 mm 0,0 UV-I 0 W/m 2,0 C -2,5 C 25,7 km/h (4 Bft) 97,87 %
01.03.2017 02:32 4,8 C 82 % 1002,4 hPa 0,0 l/m 19,1 km/h (3 Bft) S-SW 209 0 min 0,000 mm 0,0 UV-I 0 W/m 2,0 C -3,1 C 37,0 km/h (5 Bft) 95,74 %
01.03.2017 02:34 4,8 C 81 % 1002,4 hPa 0,0 l/m 21,9 km/h (4 Bft) SW 227 0 min 0,000 mm 0,0 UV-I 0 W/m 1,8 C -4,2 C 33,8 km/h (5 Bft) 95,74 %
01.03.2017 02:36 4,8 C 81 % 1002,3 hPa 0,0 l/m 24,7 km/h (4 Bft) SW 236 0 min 0,000 mm 0,0 UV-I 0 W/m 1,8 C -5,1 C 35,4 km/h (5 Bft) 100,00 %
01.03.2017 02:38 4,9 C 81 % 1002,4 hPa 0,0 l/m 22,7 km/h (4 Bft) S-SW 207 0 min 0,000 mm 0,0 UV-I 0 W/m 1,9 C -4,3 C 32,2 km/h (5 Bft) 97,87 %
01.03.2017 02:40 4,9 C 81 % 1002,4 hPa 0,0 l/m 25,0 km/h (4 Bft) W-SW 249 0 min 0,000 mm 0,0 UV-I 0 W/m 1,9 C -5,1 C 41,8 km/h (6 Bft) 95,83 %
01.03.2017 02:42 4,9 C 81 % 1002,5 hPa 0,0 l/m 29,4 km/h (5 Bft) W-NW 291 0 min 0,000 mm 0,0 UV-I 0 W/m 1,9 C -6,4 C 40,2 km/h (6 Bft) 97,87 %
01.03.2017 02:44 4,9 C 81 % 1002,5 hPa 0,0 l/m 24,0 km/h (4 Bft) SW 233 0 min 0,000 mm 0,0 UV-I 0 W/m 1,9 C -4,8 C 32,2 km/h (5 Bft) 97,87 %
01.03.2017 02:46 4,9 C 81 % 1002,6 hPa 0,0 l/m 21,8 km/h (4 Bft) W-SW 242 0 min 0,000 mm 0,0 UV-I 0 W/m 1,9 C -4,0 C 37,0 km/h (5 Bft) 100,00 %
01.03.2017 02:48 4,9 C 81 % 1002,6 hPa 0,0 l/m 18,9 km/h (3 Bft) W-SW 249 0 min 0,000 mm 0,0 UV-I 0 W/m 1,9 C -2,9 C 29,0 km/h (5 Bft) 98,00 %
01.03.2017 02:50 4,9 C 81 % 1002,8 hPa 0,0 l/m 20,4 km/h (4 Bft) W-SW 244 0 min 0,000 mm 0,0 UV-I 0 W/m 1,9 C -3,5 C 32,2 km/h (5 Bft) 100,00 %
01.03.2017 02:52 4,9 C 81 % 1003,0 hPa 0,0 l/m 21,3 km/h (4 Bft) W-SW 245 0 min 0,000 mm 0,0 UV-I 0 W/m 1,9 C -3,8 C 30,6 km/h (5 Bft) 100,00 %
01.03.2017 02:54 4,8 C 81 % 1003,1 hPa 0,0 l/m 21,3 km/h (4 Bft) W-SW 251 0 min 0,000 mm 0,0 UV-I 0 W/m 1,8 C -3,9 C 29,0 km/h (5 Bft) 100,00 %
01.03.2017 02:56 4,8 C 81 % 1003,1 hPa 0,0 l/m 23,5 km/h (4 Bft) W-SW 257 0 min 0,000 mm 0,0 UV-I 0 W/m 1,8 C -4,7 C 33,8 km/h (5 Bft) 97,37 %
01.03.2017 02:58 4,8 C 81 % 1003,2 hPa 0,0 l/m 24,4 km/h (4 Bft) S-SW 212 0 min 0,000 mm 0,0 UV-I 0 W/m 1,8 C -5,0 C 37,0 km/h (5 Bft) 100,00 %
01.03.2017 03:00 4,8 C 81 % 1003,2 hPa 0,0 l/m 24,5 km/h (4 Bft) W-SW 239 0 min 0,025 mm 0,0 UV-I 0 W/m 1,8 C -5,1 C 32,2 km/h (5 Bft) 100,00 %
01.03.2017 03:02 4,8 C 82 % 1003,2 hPa 0,0 l/m 21,1 km/h (4 Bft) S-SW 213 0 min 0,000 mm 0,0 UV-I 0 W/m 2,0 C -3,9 C 32,2 km/h (5 Bft) 100,00 %
01.03.2017 03:04 4,8 C 82 % 1003,2 hPa 0,0 l/m 21,2 km/h (4 Bft) W-SW 250 0 min 0,000 mm 0,0 UV-I 0 W/m 2,0 C -3,9 C 33,8 km/h (5 Bft) 91,49 %
01.03.2017 03:06 4,8 C 82 % 1003,3 hPa 0,0 l/m 22,6 km/h (4 Bft) SW 236 0 min 0,000 mm 0,0 UV-I 0 W/m 2,0 C -4,4 C 37,0 km/h (5 Bft) 97,87 %
01.03.2017 03:08 4,8 C 82 % 1003,4 hPa 0,0 l/m 23,6 km/h (4 Bft) W-SW 247 0 min 0,000 mm 0,0 UV-I 0 W/m 2,0 C -4,8 C 41,8 km/h (6 Bft) 97,87 %
01.03.2017 03:10 4,8 C 82 % 1003,4 hPa 0,0 l/m 21,7 km/h (4 Bft) SW 223 0 min 0,000 mm 0,0 UV-I 0 W/m 2,0 C -4,1 C 32,2 km/h (5 Bft) 97,87 %
01.03.2017 03:12 4,8 C 82 % 1003,5 hPa 0,0 l/m 22,8 km/h (4 Bft) W-SW 258 0 min 0,000 mm 0,0 UV-I 0 W/m 2,0 C -4,5 C 33,8 km/h (5 Bft) 97,87 %
01.03.2017 03:14 4,8 C 82 % 1003,7 hPa 0,0 l/m 24,2 km/h (4 Bft) W-SW 238 0 min 0,000 mm 0,0 UV-I 0 W/m 2,0 C -5,0 C 37,0 km/h (5 Bft) 93,75 %
01.03.2017 03:16 4,7 C 83 % 1003,8 hPa 0,0 l/m 24,7 km/h (4 Bft) SW 225 0 min 0,000 mm 0,0 UV-I 0 W/m 2,1 C -5,3 C 43,5 km/h (6 Bft) 97,96 %
01.03.2017 03:18 4,7 C 83 % 1004,2 hPa 0,0 l/m 26,3 km/h (4 Bft) W 275 0 min 0,000 mm 0,0 UV-I 0 W/m 2,1 C -5,8 C 40,2 km/h (6 Bft) 100,00 %
01.03.2017 03:20 4,5 C 83 % 1004,0 hPa 0,2 l/m 35,5 km/h (5 Bft) W 281 0 min 0,000 mm 0,0 UV-I 0 W/m 1,9 C -8,4 C 54,7 km/h (7 Bft) 96,00 %
01.03.2017 03:22 4,1 C 83 % 1004,0 hPa 0,2 l/m 32,0 km/h (5 Bft) W 273 0 min 0,000 mm 0,0 UV-I 0 W/m 1,5 C -8,2 C 48,3 km/h (6 Bft) 97,37 %
01.03.2017 03:24 3,8 C 84 % 1003,9 hPa 0,0 l/m 34,4 km/h (5 Bft) W-SW 242 0 min 0,000 mm 0,0 UV-I 0 W/m 1,4 C -9,2 C 53,1 km/h (7 Bft) 100,00 %
01.03.2017 03:26 3,4 C 85 % 1003,9 hPa 0,0 l/m 31,8 km/h (5 Bft) W 261 0 min 0,000 mm 0,0 UV-I 0 W/m 1,1 C -9,1 C 51,5 km/h (7 Bft) 100,00 %
01.03.2017 03:28 3,2 C 85 % 1003,9 hPa 0,0 l/m 31,5 km/h (5 Bft) W 259 0 min 0,000 mm 0,0 UV-I 0 W/m 0,9 C -9,3 C 46,7 km/h (6 Bft) 98,00 %
01.03.2017 03:30 3,1 C 86 % 1004,1 hPa 0,0 l/m 23,5 km/h (4 Bft) W-SW 239 0 min 0,000 mm 0,0 UV-I 0 W/m 1,0 C -7,0 C 38,6 km/h (5 Bft) 100,00 %
01.03.2017 03:32 3,1 C 87 % 1004,0 hPa 0,2 l/m 24,9 km/h (4 Bft) W 267 0 min 0,000 mm 0,0 UV-I 0 W/m 1,2 C -7,5 C 45,1 km/h (6 Bft) 100,00 %
01.03.2017 03:34 3,0 C 87 % 1003,9 hPa 0,0 l/m 22,3 km/h (4 Bft) W 259 0 min 0,000 mm 0,0 UV-I 0 W/m 1,1 C -6,7 C 35,4 km/h (5 Bft) 96,00 %
01.03.2017 03:36 3,0 C 88 % 1004,0 hPa 0,0 l/m 18,0 km/h (3 Bft) W-SW 252 0 min 0,000 mm 0,0 UV-I 0 W/m 1,2 C -4,9 C 33,8 km/h (5 Bft) 100,00 %
01.03.2017 03:38 3,0 C 88 % 1004,1 hPa 0,0 l/m 16,4 km/h (3 Bft) W 260 0 min 0,000 mm 0,0 UV-I 0 W/m 1,2 C -4,1 C 25,7 km/h (4 Bft) 100,00 %
01.03.2017 03:40 3,1 C 88 % 1004,2 hPa 0,0 l/m 15,3 km/h (3 Bft) W 263 0 min 0,000 mm 0,0 UV-I 0 W/m 1,3 C -3,4 C 22,5 km/h (4 Bft) 100,00 %
01.03.2017 03:42 3,1 C 88 % 1004,2 hPa 0,0 l/m 18,1 km/h (3 Bft) W 261 0 min 0,000 mm 0,0 UV-I 0 W/m 1,3 C -4,8 C 24,1 km/h (4 Bft) 100,00 %
01.03.2017 03:44 3,1 C 88 % 1004,2 hPa 0,0 l/m 16,2 km/h (3 Bft) W-SW 246 0 min 0,000 mm 0,0 UV-I 0 W/m 1,3 C -3,9 C 24,1 km/h (4 Bft) 98,00 %
01.03.2017 03:46 3,1 C 88 % 1004,2 hPa 0,0 l/m 12,9 km/h (3 Bft) W-SW 248 0 min 0,000 mm 0,0 UV-I 0 W/m 1,3 C -2,0 C 17,7 km/h (3 Bft) 97,87 %
01.03.2017 03:48 3,2 C 88 % 1004,2 hPa 0,0 l/m 14,4 km/h (3 Bft) W-SW 250 0 min 0,000 mm 0,0 UV-I 0 W/m 1,4 C -2,8 C 20,9 km/h (4 Bft) 100,00 %
01.03.2017 03:50 3,2 C 88 % 1004,2 hPa 0,0 l/m 13,9 km/h (3 Bft) SW 225 0 min 0,000 mm 0,0 UV-I 0 W/m 1,4 C -2,5 C 19,3 km/h (3 Bft) 100,00 %
01.03.2017 03:52 3,2 C 88 % 1004,3 hPa 0,0 l/m 12,9 km/h (3 Bft) W-SW 252 0 min 0,000 mm 0,0 UV-I 0 W/m 1,4 C -1,9 C 19,3 km/h (3 Bft) 100,00 %
01.03.2017 03:54 3,2 C 88 % 1004,4 hPa 0,0 l/m 14,8 km/h (3 Bft) W-SW 248 0 min 0,000 mm 0,0 UV-I 0 W/m 1,4 C -3,0 C 22,5 km/h (4 Bft) 100,00 %
01.03.2017 03:56 3,2 C 88 % 1004,4 hPa 0,0 l/m 14,8 km/h (3 Bft) W-SW 248 0 min 0,000 mm 0,0 UV-I 0 W/m 1,4 C -3,0 C 25,7 km/h (4 Bft) 100,00 %
01.03.2017 03:58 3,3 C 88 % 1004,4 hPa 0,0 l/m 15,7 km/h (3 Bft) W-SW 251 0 min 0,000 mm 0,0 UV-I 0 W/m 1,5 C -3,4 C 24,1 km/h (4 Bft) 96,00 %
01.03.2017 04:00 3,3 C 88 % 1004,4 hPa 0,0 l/m 16,4 km/h (3 Bft) W 264 0 min 0,026 mm 0,0 UV-I 0 W/m 1,5 C -3,7 C 20,9 km/h (4 Bft) 100,00 %
01.03.2017 04:02 3,4 C 88 % 1004,5 hPa 0,0 l/m 18,4 km/h (3 Bft) W-SW 249 0 min 0,000 mm 0,0 UV-I 0 W/m 1,6 C -4,5 C 27,4 km/h (4 Bft) 95,83 %
01.03.2017 04:04 3,4 C 87 % 1004,5 hPa 0,0 l/m 14,2 km/h (3 Bft) W-SW 242 0 min 0,000 mm 0,0 UV-I 0 W/m 1,4 C -2,4 C 20,9 km/h (4 Bft) 96,00 %
01.03.2017 04:06 3,5 C 87 % 1004,5 hPa 0,0 l/m 19,0 km/h (3 Bft) W 261 0 min 0,000 mm 0,0 UV-I 0 W/m 1,5 C -4,7 C 27,4 km/h (4 Bft) 97,87 %
01.03.2017 04:08 3,6 C 87 % 1004,4 hPa 0,0 l/m 17,1 km/h (3 Bft) W 259 0 min 0,000 mm 0,0 UV-I 0 W/m 1,6 C -3,7 C 25,7 km/h (4 Bft) 95,74 %
01.03.2017 04:10 3,7 C 87 % 1004,3 hPa 0,0 l/m 16,3 km/h (3 Bft) W 259 0 min 0,000 mm 0,0 UV-I 0 W/m 1,7 C -3,2 C 22,5 km/h (4 Bft) 100,00 %
01.03.2017 04:12 3,7 C 86 % 1004,3 hPa 0,0 l/m 16,3 km/h (3 Bft) W-SW 241 0 min 0,000 mm 0,0 UV-I 0 W/m 1,6 C -3,2 C 29,0 km/h (5 Bft) 100,00 %
01.03.2017 04:14 3,7 C 86 % 1004,3 hPa 0,0 l/m 16,9 km/h (3 Bft) W-SW 256 0 min 0,000 mm 0,0 UV-I 0 W/m 1,6 C -3,5 C 25,7 km/h (4 Bft) 94,00 %
01.03.2017 04:16 3,8 C 86 % 1004,4 hPa 0,0 l/m 19,0 km/h (3 Bft) W-SW 251 0 min 0,000 mm 0,0 UV-I 0 W/m 1,7 C -4,3 C 25,7 km/h (4 Bft) 97,87 %
01.03.2017 04:18 3,8 C 86 % 1004,3 hPa 0,0 l/m 17,0 km/h (3 Bft) W-SW 258 0 min 0,000 mm 0,0 UV-I 0 W/m 1,7 C -3,4 C 24,1 km/h (4 Bft) 94,00 %
01.03.2017 04:20 3,8 C 86 % 1004,3 hPa 0,0 l/m 19,0 km/h (3 Bft) SW 231 0 min 0,000 mm 0,0 UV-I 0 W/m 1,7 C -4,3 C 25,7 km/h (4 Bft) 97,87 %
01.03.2017 04:22 3,9 C 85 % 1004,3 hPa 0,0 l/m 17,1 km/h (3 Bft) SW 233 0 min 0,000 mm 0,0 UV-I 0 W/m 1,6 C -3,3 C 25,7 km/h (4 Bft) 93,62 %
01.03.2017 04:24 3,9 C 85 % 1004,2 hPa 0,0 l/m 15,1 km/h (3 Bft) SW 220 0 min 0,000 mm 0,0 UV-I 0 W/m 1,6 C -2,3 C 20,9 km/h (4 Bft) 97,87 %
01.03.2017 04:26 3,9 C 85 % 1004,2 hPa 0,0 l/m 18,9 km/h (3 Bft) SW 234 0 min 0,000 mm 0,0 UV-I 0 W/m 1,6 C -4,1 C 24,1 km/h (4 Bft) 94,44 %
01.03.2017 04:28 3,9 C 85 % 1004,4 hPa 0,0 l/m 16,1 km/h (3 Bft) W-SW 248 0 min 0,000 mm 0,0 UV-I 0 W/m 1,6 C -2,8 C 22,5 km/h (4 Bft) 96,23 %
01.03.2017 04:30 3,9 C 84 % 1004,5 hPa 0,0 l/m 14,8 km/h (3 Bft) W-SW 254 0 min 0,000 mm 0,0 UV-I 0 W/m 1,4 C -2,1 C 24,1 km/h (4 Bft) 95,74 %
01.03.2017 04:32 3,9 C 84 % 1004,5 hPa 0,0 l/m 16,6 km/h (3 Bft) W 262 0 min 0,000 mm 0,0 UV-I 0 W/m 1,4 C -3,1 C 22,5 km/h (4 Bft) 97,87 %
01.03.2017 04:34 3,9 C 84 % 1004,6 hPa 0,0 l/m 17,2 km/h (3 Bft) W-SW 247 0 min 0,000 mm 0,0 UV-I 0 W/m 1,4 C -3,4 C 24,1 km/h (4 Bft) 93,62 %
01.03.2017 04:36 3,9 C 83 % 1004,7 hPa 0,0 l/m 16,2 km/h (3 Bft) W-SW 240 0 min 0,000 mm 0,0 UV-I 0 W/m 1,3 C -2,9 C 24,1 km/h (4 Bft) 96,08 %
01.03.2017 04:38 3,9 C 83 % 1004,7 hPa 0,0 l/m 17,2 km/h (3 Bft) W-SW 248 0 min 0,000 mm 0,0 UV-I 0 W/m 1,3 C -3,4 C 25,7 km/h (4 Bft) 97,92 %
01.03.2017 04:40 4,0 C 83 % 1004,7 hPa 0,0 l/m 17,6 km/h (3 Bft) W-SW 248 0 min 0,000 mm 0,0 UV-I 0 W/m 1,4 C -3,4 C 22,5 km/h (4 Bft) 97,87 %
01.03.2017 04:42 4,0 C 83 % 1004,8 hPa 0,0 l/m 17,3 km/h (3 Bft) W 259 0 min 0,000 mm 0,0 UV-I 0 W/m 1,4 C -3,3 C 27,4 km/h (4 Bft) 97,87 %
01.03.2017 04:44 4,0 C 83 % 1004,9 hPa 0,0 l/m 17,0 km/h (3 Bft) W-SW 240 0 min 0,000 mm 0,0 UV-I 0 W/m 1,4 C -3,1 C 25,7 km/h (4 Bft) 97,37 %
01.03.2017 04:46 4,0 C 83 % 1004,9 hPa 0,0 l/m 11,5 km/h (2 Bft) W-SW 255 0 min 0,000 mm 0,0 UV-I 0 W/m 1,4 C -0,1 C 20,9 km/h (4 Bft) 97,87 %
01.03.2017 04:48 4,0 C 83 % 1004,9 hPa 0,0 l/m 13,7 km/h (3 Bft) SW 225 0 min 0,000 mm 0,0 UV-I 0 W/m 1,4 C -1,4 C 19,3 km/h (3 Bft) 98,00 %
01.03.2017 04:50 4,0 C 83 % 1004,9 hPa 0,0 l/m 14,2 km/h (3 Bft) W-SW 237 0 min 0,000 mm 0,0 UV-I 0 W/m 1,4 C -1,7 C 20,9 km/h (4 Bft) 100,00 %
01.03.2017 04:52 3,9 C 83 % 1004,9 hPa 0,0 l/m 14,9 km/h (3 Bft) SW 219 0 min 0,000 mm 0,0 UV-I 0 W/m 1,3 C -2,2 C 24,1 km/h (4 Bft) 95,74 %
01.03.2017 04:54 3,9 C 84 % 1004,9 hPa 0,0 l/m 13,3 km/h (3 Bft) W-SW 240 0 min 0,000 mm 0,0 UV-I 0 W/m 1,4 C -1,3 C 19,3 km/h (3 Bft) 100,00 %
01.03.2017 04:56 3,9 C 84 % 1005,0 hPa 0,0 l/m 15,0 km/h (3 Bft) SW 226 0 min 0,000 mm 0,0 UV-I 0 W/m 1,4 C -2,3 C 22,5 km/h (4 Bft) 95,74 %
01.03.2017 04:58 3,9 C 84 % 1004,9 hPa 0,0 l/m 16,1 km/h (3 Bft) S-SW 202 0 min 0,000 mm 0,0 UV-I 0 W/m 1,4 C -2,8 C 24,1 km/h (4 Bft) 100,00 %
01.03.2017 05:00 3,9 C 84 % 1004,9 hPa 0,0 l/m 14,1 km/h (3 Bft) W-SW 238 0 min 0,000 mm 0,0 UV-I 0 W/m 1,4 C -1,8 C 20,9 km/h (4 Bft) 97,87 %
01.03.2017 05:02 3,9 C 84 % 1004,9 hPa 0,0 l/m 12,9 km/h (3 Bft) SW 235 0 min 0,025 mm 0,0 UV-I 0 W/m 1,4 C -1,1 C 16,1 km/h (3 Bft) 94,29 %
01.03.2017 05:04 3,9 C 84 % 1004,9 hPa 0,0 l/m 14,2 km/h (3 Bft) SW 214 0 min 0,000 mm 0,0 UV-I 0 W/m 1,4 C -1,8 C 22,5 km/h (4 Bft) 100,00 %
01.03.2017 05:06 3,8 C 84 % 1005,0 hPa 0,0 l/m 11,6 km/h (2 Bft) W-SW 239 0 min 0,000 mm 0,0 UV-I 0 W/m 1,4 C -0,4 C 22,5 km/h (4 Bft) 100,00 %
01.03.2017 05:08 3,8 C 84 % 1005,0 hPa 0,0 l/m 10,1 km/h (2 Bft) SW 220 0 min 0,000 mm 0,0 UV-I 0 W/m 1,4 C 0,7 C 17,7 km/h (3 Bft) 100,00 %
01.03.2017 05:10 3,8 C 85 % 1005,0 hPa 0,0 l/m 12,4 km/h (3 Bft) SW 215 0 min 0,000 mm 0,0 UV-I 0 W/m 1,5 C -0,9 C 19,3 km/h (3 Bft) 100,00 %
01.03.2017 05:12 3,8 C 85 % 1005,1 hPa 0,0 l/m 11,1 km/h (2 Bft) SW 232 0 min 0,000 mm 0,0 UV-I 0 W/m 1,5 C -0,0 C 16,1 km/h (3 Bft) 100,00 %
01.03.2017 05:14 3,8 C 85 % 1005,1 hPa 0,0 l/m 11,1 km/h (2 Bft) S-SW 212 0 min 0,000 mm 0,0 UV-I 0 W/m 1,5 C -0,0 C 17,7 km/h (3 Bft) 100,00 %
01.03.2017 05:16 3,8 C 85 % 1005,1 hPa 0,0 l/m 11,6 km/h (2 Bft) SW 220 0 min 0,000 mm 0,0 UV-I 0 W/m 1,5 C -0,4 C 16,1 km/h (3 Bft) 100,00 %
01.03.2017 05:18 3,7 C 85 % 1005,2 hPa 0,0 l/m 11,5 km/h (2 Bft) SW 227 0 min 0,000 mm 0,0 UV-I 0 W/m 1,4 C -0,4 C 19,3 km/h (3 Bft) 97,87 %
01.03.2017 05:20 3,7 C 85 % 1005,2 hPa 0,0 l/m 11,9 km/h (2 Bft) W-SW 256 0 min 0,000 mm 0,0 UV-I 0 W/m 1,4 C -0,7 C 17,7 km/h (3 Bft) 97,87 %
01.03.2017 05:22 3,7 C 85 % 1005,2 hPa 0,0 l/m 11,9 km/h (2 Bft) SW 219 0 min 0,000 mm 0,0 UV-I 0 W/m 1,4 C -0,7 C 17,7 km/h (3 Bft) 95,74 %
01.03.2017 05:24 3,7 C 85 % 1005,2 hPa 0,0 l/m 11,9 km/h (2 Bft) SW 222 0 min 0,000 mm 0,0 UV-I 0 W/m 1,4 C -0,7 C 17,7 km/h (3 Bft) 96,00 %
01.03.2017 05:26 3,6 C 85 % 1005,2 hPa 0,0 l/m 11,3 km/h (2 Bft) S-SW 211 0 min 0,000 mm 0,0 UV-I 0 W/m 1,3 C -0,4 C 17,7 km/h (3 Bft) 100,00 %
01.03.2017 05:28 3,6 C 85 % 1005,2 hPa 0,0 l/m 12,3 km/h (3 Bft) S-SW 199 0 min 0,000 mm 0,0 UV-I 0 W/m 1,3 C -1,0 C 19,3 km/h (3 Bft) 97,87 %
01.03.2017 05:30 3,6 C 85 % 1005,2 hPa 0,0 l/m 11,2 km/h (2 Bft) S-SW 211 0 min 0,000 mm 0,0 UV-I 0 W/m 1,3 C -0,3 C 17,7 km/h (3 Bft) 97,37 %
01.03.2017 05:32 3,5 C 86 % 1005,2 hPa 0,0 l/m 9,0 km/h (2 Bft) SW 229 0 min 0,000 mm 0,0 UV-I 0 W/m 1,4 C 1,2 C 14,5 km/h (3 Bft) 97,87 %
01.03.2017 05:34 3,5 C 86 % 1005,2 hPa 0,0 l/m 8,3 km/h (2 Bft) SW 227 0 min 0,000 mm 0,0 UV-I 0 W/m 1,4 C 1,8 C 16,1 km/h (3 Bft) 97,87 %
01.03.2017 05:36 3,4 C 86 % 1005,2 hPa 0,0 l/m 10,5 km/h (2 Bft) S-SW 210 0 min 0,000 mm 0,0 UV-I 0 W/m 1,3 C -0,1 C 14,5 km/h (3 Bft) 98,11 %
01.03.2017 05:38 3,4 C 86 % 1005,2 hPa 0,0 l/m 11,3 km/h (2 Bft) S-SW 212 0 min 0,000 mm 0,0 UV-I 0 W/m 1,3 C -0,6 C 17,7 km/h (3 Bft) 96,00 %
01.03.2017 05:40 3,4 C 86 % 1005,2 hPa 0,0 l/m 10,6 km/h (2 Bft) W-SW 240 0 min 0,000 mm 0,0 UV-I 0 W/m 1,3 C -0,1 C 14,5 km/h (3 Bft) 97,37 %
01.03.2017 05:42 3,3 C 86 % 1005,0 hPa 0,0 l/m 12,0 km/h (2 Bft) SW 227 0 min 0,000 mm 0,0 UV-I 0 W/m 1,2 C -1,2 C 19,3 km/h (3 Bft) 97,87 %
01.03.2017 05:44 3,3 C 86 % 1005,0 hPa 0,0 l/m 12,4 km/h (3 Bft) SW 232 0 min 0,000 mm 0,0 UV-I 0 W/m 1,2 C -1,5 C 17,7 km/h (3 Bft) 97,92 %
01.03.2017 05:46 3,3 C 86 % 1004,9 hPa 0,0 l/m 13,6 km/h (3 Bft) SW 236 0 min 0,000 mm 0,0 UV-I 0 W/m 1,2 C -2,2 C 17,7 km/h (3 Bft) 97,87 %
01.03.2017 05:48 3,3 C 86 % 1004,8 hPa 0,0 l/m 11,8 km/h (2 Bft) W-SW 241 0 min 0,000 mm 0,0 UV-I 0 W/m 1,2 C -1,1 C 16,1 km/h (3 Bft) 95,74 %
01.03.2017 05:50 3,3 C 86 % 1004,7 hPa 0,0 l/m 12,7 km/h (3 Bft) SW 217 0 min 0,000 mm 0,0 UV-I 0 W/m 1,2 C -1,6 C 17,7 km/h (3 Bft) 95,74 %
01.03.2017 05:52 3,3 C 86 % 1004,8 hPa 0,0 l/m 12,9 km/h (3 Bft) S-SW 211 0 min 0,000 mm 0,0 UV-I 0 W/m 1,2 C -1,8 C 20,9 km/h (4 Bft) 95,74 %
01.03.2017 05:54 3,3 C 86 % 1004,8 hPa 0,0 l/m 12,4 km/h (3 Bft) SW 229 0 min 0,000 mm 0,0 UV-I 0 W/m 1,2 C -1,5 C 19,3 km/h (3 Bft) 98,00 %
01.03.2017 05:56 3,2 C 86 % 1004,9 hPa 0,0 l/m 11,9 km/h (2 Bft) S-SW 212 0 min 0,000 mm 0,0 UV-I 0 W/m 1,1 C -1,3 C 19,3 km/h (3 Bft) 95,74 %
01.03.2017 05:58 3,2 C 86 % 1005,0 hPa 0,0 l/m 12,5 km/h (3 Bft) S-SW 205 0 min 0,000 mm 0,0 UV-I 0 W/m 1,1 C -1,6 C 17,7 km/h (3 Bft) 97,87 %
01.03.2017 06:00 3,2 C 86 % 1005,0 hPa 0,0 l/m 11,5 km/h (2 Bft) SW 225 0 min 0,025 mm 0,0 UV-I 0 W/m 1,1 C -1,0 C 17,7 km/h (3 Bft) 97,87 %
01.03.2017 06:02 3,2 C 86 % 1005,1 hPa 0,0 l/m 11,5 km/h (2 Bft) SW 217 0 min 0,000 mm 0,0 UV-I 0 W/m 1,1 C -1,0 C 19,3 km/h (3 Bft) 97,87 %
01.03.2017 06:04 3,2 C 86 % 1005,1 hPa 0,0 l/m 10,5 km/h (2 Bft) S-SW 193 0 min 0,000 mm 0,0 UV-I 0 W/m 1,1 C -0,3 C 16,1 km/h (3 Bft) 93,62 %
01.03.2017 06:06 3,2 C 86 % 1005,3 hPa 0,0 l/m 12,2 km/h (2 Bft) W-SW 244 0 min 0,000 mm 0,0 UV-I 0 W/m 1,1 C -1,4 C 20,9 km/h (4 Bft) 97,87 %
01.03.2017 06:08 3,2 C 86 % 1005,2 hPa 0,0 l/m 11,3 km/h (2 Bft) W-SW 244 0 min 0,000 mm 0,0 UV-I 0 W/m 1,1 C -0,8 C 16,1 km/h (3 Bft) 97,14 %
01.03.2017 06:10 3,2 C 86 % 1005,1 hPa 0,0 l/m 12,4 km/h (3 Bft) SW 231 0 min 0,000 mm 0,0 UV-I 0 W/m 1,1 C -1,6 C 19,3 km/h (3 Bft) 98,00 %
01.03.2017 06:12 3,2 C 86 % 1004,9 hPa 0,0 l/m 11,7 km/h (2 Bft) SW 224 0 min 0,000 mm 0,0 UV-I 0 W/m 1,1 C -1,1 C 19,3 km/h (3 Bft) 97,87 %
01.03.2017 06:14 3,1 C 86 % 1005,0 hPa 0,0 l/m 15,7 km/h (3 Bft) SW 224 0 min 0,000 mm 0,0 UV-I 0 W/m 1,0 C -3,6 C 24,1 km/h (4 Bft) 97,87 %
01.03.2017 06:16 3,2 C 86 % 1005,0 hPa 0,0 l/m 16,0 km/h (3 Bft) SW 231 0 min 0,000 mm 0,0 UV-I 0 W/m 1,1 C -3,6 C 20,9 km/h (4 Bft) 95,74 %
01.03.2017 06:18 3,2 C 86 % 1005,0 hPa 0,0 l/m 15,6 km/h (3 Bft) W-SW 248 0 min 0,000 mm 0,0 UV-I 0 W/m 1,1 C -3,4 C 22,5 km/h (4 Bft) 100,00 %
01.03.2017 06:20 3,2 C 86 % 1004,9 hPa 0,0 l/m 12,0 km/h (2 Bft) SW 234 0 min 0,000 mm 0,0 UV-I 0 W/m 1,1 C -1,3 C 17,7 km/h (3 Bft) 100,00 %
01.03.2017 06:22 3,2 C 85 % 1004,9 hPa 0,0 l/m 13,6 km/h (3 Bft) W-SW 242 0 min 0,000 mm 0,0 UV-I 0 W/m 0,9 C -2,3 C 20,9 km/h (4 Bft) 100,00 %
01.03.2017 06:24 3,2 C 85 % 1005,0 hPa 0,0 l/m 14,7 km/h (3 Bft) W-SW 239 0 min 0,000 mm 0,0 UV-I 0 W/m 0,9 C -2,9 C 20,9 km/h (4 Bft) 100,00 %
01.03.2017 06:26 3,2 C 85 % 1005,2 hPa 0,0 l/m 17,0 km/h (3 Bft) S-SW 211 0 min 0,000 mm 0,0 UV-I 0 W/m 0,9 C -4,1 C 24,1 km/h (4 Bft) 97,87 %
01.03.2017 06:28 3,2 C 85 % 1005,3 hPa 0,0 l/m 15,8 km/h (3 Bft) W-SW 246 0 min 0,000 mm 0,0 UV-I 0 W/m 0,9 C -3,5 C 22,5 km/h (4 Bft) 93,75 %
01.03.2017 06:30 3,2 C 85 % 1005,1 hPa 0,0 l/m 16,1 km/h (3 Bft) W-SW 248 0 min 0,000 mm 0,0 UV-I 0 W/m 0,9 C -3,7 C 25,7 km/h (4 Bft) 95,74 %
01.03.2017 06:32 3,2 C 85 % 1005,1 hPa 0,0 l/m 16,5 km/h (3 Bft) S-SW 209 0 min 0,000 mm 0,0 UV-I 0 W/m 0,9 C -3,9 C 22,5 km/h (4 Bft) 94,00 %
01.03.2017 06:34 3,2 C 86 % 1005,0 hPa 0,0 l/m 14,9 km/h (3 Bft) W-SW 255 0 min 0,000 mm 0,0 UV-I 0 W/m 1,1 C -3,0 C 22,5 km/h (4 Bft) 94,74 %
01.03.2017 06:36 3,2 C 86 % 1005,1 hPa 0,0 l/m 17,7 km/h (3 Bft) SW 233 0 min 0,000 mm 0,0 UV-I 0 W/m 1,1 C -4,5 C 25,7 km/h (4 Bft) 97,87 %
01.03.2017 06:38 3,2 C 86 % 1005,2 hPa 0,0 l/m 17,6 km/h (3 Bft) SW 219 0 min 0,000 mm 0,0 UV-I 0 W/m 1,1 C -4,4 C 22,5 km/h (4 Bft) 95,74 %
01.03.2017 06:40 3,1 C 86 % 1005,2 hPa 0,0 l/m 13,1 km/h (3 Bft) W-SW 240 0 min 0,000 mm 0,0 UV-I 0 W/m 1,0 C -2,1 C 19,3 km/h (3 Bft) 94,00 %
01.03.2017 06:42 3,1 C 86 % 1005,1 hPa 0,0 l/m 15,0 km/h (3 Bft) W-SW 240 0 min 0,000 mm 0,0 UV-I 0 W/m 1,0 C -3,2 C 20,9 km/h (4 Bft) 98,00 %
01.03.2017 06:44 3,1 C 86 % 1005,2 hPa 0,0 l/m 13,6 km/h (3 Bft) SW 234 0 min 0,000 mm 0,0 UV-I 4 W/m 1,0 C -2,4 C 20,9 km/h (4 Bft) 97,87 %
01.03.2017 06:46 3,0 C 86 % 1005,2 hPa 0,0 l/m 13,8 km/h (3 Bft) SW 231 0 min 0,000 mm 0,0 UV-I 5 W/m 0,9 C -2,7 C 17,7 km/h (3 Bft) 97,87 %
01.03.2017 06:48 2,9 C 87 % 1005,2 hPa 0,0 l/m 13,8 km/h (3 Bft) SW 230 0 min 0,000 mm 0,0 UV-I 5 W/m 1,0 C -2,8 C 19,3 km/h (3 Bft) 95,74 %
01.03.2017 06:50 2,9 C 87 % 1005,1 hPa 0,0 l/m 13,8 km/h (3 Bft) W 267 0 min 0,000 mm 0,0 UV-I 5 W/m 1,0 C -2,8 C 19,3 km/h (3 Bft) 97,87 %
01.03.2017 06:52 2,9 C 87 % 1005,1 hPa 0,0 l/m 14,6 km/h (3 Bft) SW 234 0 min 0,000 mm 0,0 UV-I 5 W/m 1,0 C -3,2 C 24,1 km/h (4 Bft) 97,37 %
01.03.2017 06:54 2,9 C 87 % 1005,2 hPa 0,0 l/m 15,0 km/h (3 Bft) W-SW 248 0 min 0,000 mm 0,0 UV-I 6 W/m 1,0 C -3,5 C 24,1 km/h (4 Bft) 92,00 %
01.03.2017 06:56 2,9 C 87 % 1005,3 hPa 0,0 l/m 13,1 km/h (3 Bft) W-SW 237 0 min 0,000 mm 0,0 UV-I 7 W/m 1,0 C -2,4 C 19,3 km/h (3 Bft) 98,00 %
01.03.2017 06:58 3,0 C 86 % 1005,5 hPa 0,0 l/m 13,6 km/h (3 Bft) SW 224 0 min 0,000 mm 0,0 UV-I 8 W/m 0,9 C -2,5 C 20,9 km/h (4 Bft) 97,87 %
01.03.2017 07:00 3,0 C 86 % 1005,6 hPa 0,0 l/m 12,4 km/h (3 Bft) S-SW 206 0 min 0,026 mm 0,0 UV-I 9 W/m 0,9 C -1,8 C 17,7 km/h (3 Bft) 97,87 %
01.03.2017 07:02 3,1 C 86 % 1005,7 hPa 0,0 l/m 14,9 km/h (3 Bft) W-SW 248 0 min 0,000 mm 0,0 UV-I 10 W/m 1,0 C -3,2 C 22,5 km/h (4 Bft) 95,74 %
01.03.2017 07:04 3,1 C 86 % 1005,6 hPa 0,0 l/m 16,3 km/h (3 Bft) W-SW 240 0 min 0,000 mm 0,0 UV-I 11 W/m 1,0 C -3,9 C 24,1 km/h (4 Bft) 100,00 %
01.03.2017 07:06 3,1 C 86 % 1005,7 hPa 0,0 l/m 17,3 km/h (3 Bft) W-SW 246 0 min 0,000 mm 0,0 UV-I 12 W/m 1,0 C -4,4 C 24,1 km/h (4 Bft) 97,87 %
01.03.2017 07:08 3,1 C 85 % 1005,7 hPa 0,0 l/m 15,6 km/h (3 Bft) SW 236 0 min 0,000 mm 0,0 UV-I 14 W/m 0,8 C -3,5 C 22,5 km/h (4 Bft) 97,44 %
01.03.2017 07:10 3,1 C 85 % 1005,7 hPa 0,0 l/m 18,3 km/h (3 Bft) W-SW 247 0 min 0,000 mm 0,0 UV-I 14 W/m 0,8 C -4,9 C 29,0 km/h (5 Bft) 95,74 %
01.03.2017 07:12 3,1 C 85 % 1005,8 hPa 0,0 l/m 16,1 km/h (3 Bft) SW 229 0 min 0,000 mm 0,0 UV-I 16 W/m 0,8 C -3,8 C 25,7 km/h (4 Bft) 95,74 %
01.03.2017 07:14 3,2 C 85 % 1005,8 hPa 0,0 l/m 15,7 km/h (3 Bft) S-SW 200 0 min 0,000 mm 0,0 UV-I 18 W/m 0,9 C -3,5 C 22,5 km/h (4 Bft) 100,00 %
01.03.2017 07:16 3,2 C 85 % 1005,9 hPa 0,0 l/m 13,3 km/h (3 Bft) S-SW 194 0 min 0,000 mm 0,0 UV-I 19 W/m 0,9 C -2,1 C 19,3 km/h (3 Bft) 95,74 %
01.03.2017 07:18 3,2 C 85 % 1006,0 hPa 0,0 l/m 12,7 km/h (3 Bft) S-SW 211 0 min 0,000 mm 0,0 UV-I 20 W/m 0,9 C -1,8 C 19,3 km/h (3 Bft) 93,62 %
01.03.2017 07:20 3,2 C 84 % 1006,1 hPa 0,0 l/m 14,6 km/h (3 Bft) SW 233 0 min 0,000 mm 0,0 UV-I 22 W/m 0,8 C -2,9 C 25,7 km/h (4 Bft) 95,74 %
01.03.2017 07:22 3,2 C 84 % 1006,0 hPa 0,0 l/m 16,3 km/h (3 Bft) S-SW 199 0 min 0,000 mm 0,0 UV-I 24 W/m 0,8 C -3,8 C 25,7 km/h (4 Bft) 92,00 %
01.03.2017 07:24 3,3 C 84 % 1006,1 hPa 0,0 l/m 14,4 km/h (3 Bft) S-SW 199 0 min 0,000 mm 0,0 UV-I 25 W/m 0,9 C -2,7 C 25,7 km/h (4 Bft) 91,49 %
01.03.2017 07:26 3,3 C 84 % 1006,0 hPa 0,0 l/m 13,9 km/h (3 Bft) SW 235 0 min 0,000 mm 0,0 UV-I 25 W/m 0,9 C -2,4 C 20,9 km/h (4 Bft) 95,74 %
01.03.2017 07:28 3,3 C 83 % 1005,9 hPa 0,0 l/m 17,4 km/h (3 Bft) S-SW 211 0 min 0,000 mm 0,0 UV-I 22 W/m 0,7 C -4,2 C 27,4 km/h (4 Bft) 89,36 %
01.03.2017 07:30 3,3 C 83 % 1006,1 hPa 0,0 l/m 14,1 km/h (3 Bft) SW 227 0 min 0,000 mm 0,0 UV-I 21 W/m 0,7 C -2,5 C 22,5 km/h (4 Bft) 95,74 %
01.03.2017 07:32 3,4 C 83 % 1006,2 hPa 0,0 l/m 16,0 km/h (3 Bft) SW 222 0 min 0,000 mm 0,0 UV-I 21 W/m 0,8 C -3,4 C 25,7 km/h (4 Bft) 100,00 %
01.03.2017 07:34 3,4 C 83 % 1006,1 hPa 0,0 l/m 16,8 km/h (3 Bft) W-SW 240 0 min 0,000 mm 0,0 UV-I 21 W/m 0,8 C -3,8 C 22,5 km/h (4 Bft) 93,62 %
01.03.2017 07:36 3,4 C 83 % 1006,1 hPa 0,0 l/m 16,6 km/h (3 Bft) SW 228 0 min 0,000 mm 0,0 UV-I 19 W/m 0,8 C -3,7 C 25,7 km/h (4 Bft) 96,00 %
01.03.2017 07:38 3,5 C 83 % 1006,1 hPa 0,0 l/m 16,5 km/h (3 Bft) W-SW 242 0 min 0,000 mm 0,0 UV-I 18 W/m 0,9 C -3,5 C 24,1 km/h (4 Bft) 97,87 %
01.03.2017 07:40 3,5 C 82 % 1006,1 hPa 0,0 l/m 18,8 km/h (3 Bft) W-SW 245 0 min 0,000 mm 0,0 UV-I 18 W/m 0,7 C -4,6 C 25,7 km/h (4 Bft) 95,74 %
01.03.2017 07:42 3,5 C 82 % 1006,1 hPa 0,0 l/m 17,1 km/h (3 Bft) SW 218 0 min 0,000 mm 0,0 UV-I 21 W/m 0,7 C -3,8 C 25,7 km/h (4 Bft) 97,87 %
01.03.2017 07:44 3,5 C 82 % 1006,1 hPa 0,0 l/m 15,9 km/h (3 Bft) W-SW 242 0 min 0,000 mm 0,0 UV-I 25 W/m 0,7 C -3,2 C 24,1 km/h (4 Bft) 97,87 %
01.03.2017 07:46 3,6 C 82 % 1006,2 hPa 0,0 l/m 16,5 km/h (3 Bft) W-SW 257 0 min 0,000 mm 0,0 UV-I 25 W/m 0,8 C -3,4 C 24,1 km/h (4 Bft) 95,74 %
01.03.2017 07:48 3,6 C 81 % 1006,2 hPa 0,0 l/m 14,2 km/h (3 Bft) SW 236 0 min 0,000 mm 0,0 UV-I 25 W/m 0,7 C -2,2 C 20,9 km/h (4 Bft) 95,83 %
01.03.2017 07:50 3,6 C 81 % 1006,5 hPa 0,0 l/m 15,5 km/h (3 Bft) W-SW 245 0 min 0,000 mm 0,0 UV-I 24 W/m 0,7 C -2,9 C 25,7 km/h (4 Bft) 97,87 %
01.03.2017 07:52 3,7 C 81 % 1006,6 hPa 0,0 l/m 13,7 km/h (3 Bft) SW 224 0 min 0,000 mm 0,0 UV-I 23 W/m 0,7 C -1,8 C 22,5 km/h (4 Bft) 97,87 %
01.03.2017 07:54 3,7 C 81 % 1006,6 hPa 0,0 l/m 16,1 km/h (3 Bft) S-SW 211 0 min 0,000 mm 0,0 UV-I 25 W/m 0,7 C -3,1 C 24,1 km/h (4 Bft) 97,87 %
01.03.2017 07:56 3,7 C 81 % 1006,6 hPa 0,0 l/m 13,9 km/h (3 Bft) SW 229 0 min 0,000 mm 0,0 UV-I 27 W/m 0,7 C -1,9 C 22,5 km/h (4 Bft) 97,37 %
01.03.2017 07:58 3,7 C 81 % 1006,5 hPa 0,0 l/m 12,8 km/h (3 Bft) S-SW 198 0 min 0,000 mm 0,0 UV-I 30 W/m 0,7 C -1,2 C 17,7 km/h (3 Bft) 96,00 %
01.03.2017 08:00 3,7 C 80 % 1006,5 hPa 0,0 l/m 14,1 km/h (3 Bft) SW 224 0 min 0,025 mm 0,0 UV-I 32 W/m 0,6 C -2,0 C 20,9 km/h (4 Bft) 100,00 %
01.03.2017 08:02 3,7 C 80 % 1006,6 hPa 0,0 l/m 13,6 km/h (3 Bft) SW 234 0 min 0,000 mm 0,0 UV-I 37 W/m 0,6 C -1,7 C 17,7 km/h (3 Bft) 95,74 %
01.03.2017 08:04 3,7 C 80 % 1006,6 hPa 0,0 l/m 11,9 km/h (2 Bft) SW 220 0 min 0,000 mm 0,0 UV-I 45 W/m 0,6 C -0,7 C 19,3 km/h (3 Bft) 100,00 %
01.03.2017 08:06 3,8 C 80 % 1006,7 hPa 0,0 l/m 14,4 km/h (3 Bft) W-SW 242 0 min 0,000 mm 0,0 UV-I 49 W/m 0,7 C -2,1 C 20,9 km/h (4 Bft) 97,87 %
01.03.2017 08:08 3,8 C 80 % 1006,7 hPa 0,0 l/m 12,0 km/h (2 Bft) SW 220 0 min 0,000 mm 0,0 UV-I 49 W/m 0,7 C -0,6 C 19,3 km/h (3 Bft) 95,74 %
01.03.2017 08:10 3,8 C 80 % 1006,7 hPa 0,0 l/m 11,4 km/h (2 Bft) SW 236 0 min 0,000 mm 0,0 UV-I 53 W/m 0,7 C -0,2 C 19,3 km/h (3 Bft) 100,00 %
01.03.2017 08:12 3,8 C 80 % 1006,8 hPa 0,0 l/m 11,5 km/h (2 Bft) W-SW 238 0 min 0,000 mm 0,0 UV-I 57 W/m 0,7 C -0,3 C 19,3 km/h (3 Bft) 100,00 %
01.03.2017 08:14 3,8 C 80 % 1006,8 hPa 0,0 l/m 12,3 km/h (3 Bft) SW 229 0 min 0,000 mm 0,0 UV-I 55 W/m 0,7 C -0,8 C 17,7 km/h (3 Bft) 93,62 %
01.03.2017 08:16 3,8 C 80 % 1006,9 hPa 0,0 l/m 11,8 km/h (2 Bft) SW 231 0 min 0,000 mm 0,0 UV-I 58 W/m 0,7 C -0,5 C 19,3 km/h (3 Bft) 100,00 %
01.03.2017 08:18 3,8 C 79 % 1006,8 hPa 0,0 l/m 8,9 km/h (2 Bft) SW 219 0 min 0,000 mm 0,0 UV-I 66 W/m 0,5 C 1,6 C 14,5 km/h (3 Bft) 97,30 %
01.03.2017 08:20 3,9 C 79 % 1006,7 hPa 0,0 l/m 11,0 km/h (2 Bft) SW 235 0 min 0,000 mm 0,0 UV-I 74 W/m 0,6 C 0,1 C 19,3 km/h (3 Bft) 95,74 %
01.03.2017 08:22 3,9 C 79 % 1006,7 hPa 0,0 l/m 9,6 km/h (2 Bft) SW 214 0 min 0,000 mm 0,0 UV-I 80 W/m 0,6 C 1,2 C 14,5 km/h (3 Bft) 98,00 %
01.03.2017 08:24 3,9 C 79 % 1006,6 hPa 0,0 l/m 10,6 km/h (2 Bft) W-SW 237 0 min 0,000 mm 0,0 UV-I 85 W/m 0,6 C 0,4 C 16,1 km/h (3 Bft) 95,83 %
01.03.2017 08:26 3,9 C 80 % 1006,6 hPa 0,0 l/m 11,4 km/h (2 Bft) SW 236 0 min 0,000 mm 0,0 UV-I 91 W/m 0,8 C -0,1 C 17,7 km/h (3 Bft) 100,00 %
01.03.2017 08:28 3,9 C 79 % 1006,7 hPa 0,0 l/m 10,5 km/h (2 Bft) W-SW 254 0 min 0,000 mm 0,0 UV-I 96 W/m 0,6 C 0,5 C 14,5 km/h (3 Bft) 97,96 %
01.03.2017 08:30 4,0 C 79 % 1006,8 hPa 0,0 l/m 14,4 km/h (3 Bft) SW 227 0 min 0,000 mm 0,0 UV-I 100 W/m 0,7 C -1,8 C 20,9 km/h (4 Bft) 100,00 %
01.03.2017 08:32 4,1 C 78 % 1006,8 hPa 0,0 l/m 15,3 km/h (3 Bft) SW 217 0 min 0,000 mm 0,0 UV-I 105 W/m 0,6 C -2,2 C 20,9 km/h (4 Bft) 100,00 %
01.03.2017 08:34 4,2 C 77 % 1006,8 hPa 0,0 l/m 18,2 km/h (3 Bft) W 267 0 min 0,000 mm 0,0 UV-I 111 W/m 0,5 C -3,4 C 27,4 km/h (4 Bft) 100,00 %
01.03.2017 08:36 4,3 C 76 % 1006,8 hPa 0,0 l/m 17,1 km/h (3 Bft) W-SW 258 0 min 0,000 mm 0,0 UV-I 114 W/m 0,5 C -2,8 C 24,1 km/h (4 Bft) 98,11 %
01.03.2017 08:38 4,4 C 75 % 1006,8 hPa 0,0 l/m 16,1 km/h (3 Bft) W-SW 257 0 min 0,000 mm 0,0 UV-I 117 W/m 0,4 C -2,2 C 25,7 km/h (4 Bft) 100,00 %
01.03.2017 08:40 4,4 C 75 % 1006,9 hPa 0,0 l/m 19,6 km/h (3 Bft) W 263 0 min 0,000 mm 0,0 UV-I 123 W/m 0,4 C -3,8 C 30,6 km/h (5 Bft) 93,62 %
01.03.2017 08:42 4,6 C 74 % 1006,9 hPa 0,0 l/m 19,5 km/h (3 Bft) SW 217 0 min 0,000 mm 0,0 UV-I 122 W/m 0,4 C -3,5 C 30,6 km/h (5 Bft) 95,74 %
01.03.2017 08:44 4,6 C 74 % 1006,9 hPa 0,0 l/m 17,1 km/h (3 Bft) SW 236 0 min 0,000 mm 0,0 UV-I 119 W/m 0,4 C -2,4 C 35,4 km/h (5 Bft) 93,62 %
01.03.2017 08:46 4,7 C 74 % 1006,9 hPa 0,0 l/m 15,1 km/h (3 Bft) W-SW 243 0 min 0,000 mm 0,0 UV-I 122 W/m 0,5 C -1,3 C 20,9 km/h (4 Bft) 95,74 %
01.03.2017 08:48 4,7 C 74 % 1006,8 hPa 0,0 l/m 16,1 km/h (3 Bft) W 259 0 min 0,000 mm 0,0 UV-I 134 W/m 0,5 C -1,8 C 22,5 km/h (4 Bft) 95,74 %
01.03.2017 08:50 4,7 C 74 % 1006,8 hPa 0,0 l/m 19,2 km/h (3 Bft) SW 221 0 min 0,000 mm 0,0 UV-I 137 W/m 0,5 C -3,2 C 24,1 km/h (4 Bft) 97,87 %
01.03.2017 08:52 4,7 C 74 % 1006,7 hPa 0,0 l/m 18,1 km/h (3 Bft) SW 230 0 min 0,000 mm 0,0 UV-I 146 W/m 0,5 C -2,8 C 27,4 km/h (4 Bft) 97,87 %
01.03.2017 08:54 4,8 C 73 % 1006,7 hPa 0,0 l/m 18,7 km/h (3 Bft) SW 218 0 min 0,000 mm 0,0 UV-I 154 W/m 0,4 C -2,9 C 25,7 km/h (4 Bft) 92,11 %
01.03.2017 08:56 4,8 C 73 % 1006,7 hPa 0,0 l/m 13,5 km/h (3 Bft) W-SW 242 0 min 0,000 mm 0,0 UV-I 169 W/m 0,4 C -0,4 C 25,7 km/h (4 Bft) 95,74 %
01.03.2017 08:58 4,8 C 73 % 1006,7 hPa 0,0 l/m 17,5 km/h (3 Bft) SW 234 0 min 0,000 mm 0,0 UV-I 173 W/m 0,4 C -2,4 C 25,7 km/h (4 Bft) 95,74 %
01.03.2017 09:00 4,8 C 73 % 1006,7 hPa 0,0 l/m 17,4 km/h (3 Bft) W-SW 252 0 min 0,076 mm 0,0 UV-I 179 W/m 0,4 C -2,3 C 24,1 km/h (4 Bft) 98,00 %
01.03.2017 09:02 4,9 C 73 % 1006,8 hPa 0,0 l/m 17,6 km/h (3 Bft) W-SW 252 0 min 0,000 mm 0,0 UV-I 188 W/m 0,5 C -2,3 C 25,7 km/h (4 Bft) 93,62 %
01.03.2017 09:04 4,9 C 73 % 1006,8 hPa 0,0 l/m 18,0 km/h (3 Bft) SW 222 2 min 0,000 mm 0,0 UV-I 201 W/m 0,5 C -2,5 C 25,7 km/h (4 Bft) 97,92 %
01.03.2017 09:06 4,9 C 73 % 1006,7 hPa 0,0 l/m 19,1 km/h (3 Bft) W 264 2 min 0,000 mm 0,0 UV-I 204 W/m 0,5 C -2,9 C 27,4 km/h (4 Bft) 94,00 %
01.03.2017 09:08 5,0 C 72 % 1006,8 hPa 0,0 l/m 18,0 km/h (3 Bft) SW 236 2 min 0,000 mm 0,0 UV-I 220 W/m 0,4 C -2,3 C 25,7 km/h (4 Bft) 95,74 %
01.03.2017 09:10 5,1 C 72 % 1006,7 hPa 0,0 l/m 17,8 km/h (3 Bft) SW 219 2 min 0,000 mm 0,0 UV-I 230 W/m 0,5 C -2,1 C 27,4 km/h (4 Bft) 97,87 %
01.03.2017 09:12 5,1 C 72 % 1006,8 hPa 0,0 l/m 15,7 km/h (3 Bft) W-SW 246 2 min 0,000 mm 0,0 UV-I 235 W/m 0,5 C -1,2 C 27,4 km/h (4 Bft) 93,62 %
01.03.2017 09:14 5,2 C 72 % 1006,9 hPa 0,0 l/m 16,6 km/h (3 Bft) SW 229 2 min 0,000 mm 0,0 UV-I 221 W/m 0,6 C -1,5 C 32,2 km/h (5 Bft) 95,74 %
01.03.2017 09:16 5,2 C 71 % 1006,9 hPa 0,0 l/m 19,3 km/h (3 Bft) W 267 2 min 0,000 mm 0,0 UV-I 229 W/m 0,4 C -2,6 C 27,4 km/h (4 Bft) 89,36 %
01.03.2017 09:18 5,3 C 71 % 1007,0 hPa 0,0 l/m 14,0 km/h (3 Bft) SW 219 2 min 0,000 mm 0,4 UV-I 274 W/m 0,5 C -0,0 C 22,5 km/h (4 Bft) 97,87 %
01.03.2017 09:20 5,3 C 72 % 1007,0 hPa 0,0 l/m 17,5 km/h (3 Bft) SW 223 2 min 0,000 mm 0,5 UV-I 243 W/m 0,7 C -1,7 C 25,7 km/h (4 Bft) 94,29 %
01.03.2017 09:22 5,4 C 70 % 1006,9 hPa 0,0 l/m 21,8 km/h (4 Bft) W 264 2 min 0,000 mm 0,5 UV-I 241 W/m 0,4 C -3,3 C 33,8 km/h (5 Bft) 98,00 %
01.03.2017 09:24 5,4 C 71 % 1007,0 hPa 0,0 l/m 14,8 km/h (3 Bft) SW 234 0 min 0,000 mm 0,5 UV-I 211 W/m 0,6 C -0,3 C 22,5 km/h (4 Bft) 93,62 %
01.03.2017 09:26 5,4 C 71 % 1007,1 hPa 0,0 l/m 17,5 km/h (3 Bft) SW 217 0 min 0,000 mm 0,5 UV-I 210 W/m 0,6 C -1,6 C 27,4 km/h (4 Bft) 97,87 %
01.03.2017 09:28 5,4 C 69 % 1007,1 hPa 0,0 l/m 19,2 km/h (3 Bft) W-SW 250 2 min 0,000 mm 0,5 UV-I 235 W/m 0,2 C -2,3 C 27,4 km/h (4 Bft) 98,00 %
01.03.2017 09:30 5,5 C 71 % 1007,1 hPa 0,0 l/m 15,6 km/h (3 Bft) SW 224 2 min 0,000 mm 0,5 UV-I 233 W/m 0,7 C -0,6 C 22,5 km/h (4 Bft) 97,87 %
01.03.2017 09:32 5,5 C 69 % 1007,1 hPa 0,0 l/m 18,3 km/h (3 Bft) W-SW 252 0 min 0,000 mm 0,5 UV-I 217 W/m 0,3 C -1,8 C 29,0 km/h (5 Bft) 93,62 %
01.03.2017 09:34 5,6 C 70 % 1007,2 hPa 0,0 l/m 15,6 km/h (3 Bft) W-SW 250 2 min 0,000 mm 0,6 UV-I 232 W/m 0,6 C -0,5 C 24,1 km/h (4 Bft) 95,74 %
01.03.2017 09:36 5,6 C 70 % 1007,2 hPa 0,0 l/m 17,5 km/h (3 Bft) W-SW 250 2 min 0,000 mm 0,6 UV-I 296 W/m 0,6 C -1,4 C 24,1 km/h (4 Bft) 100,00 %
01.03.2017 09:38 5,7 C 69 % 1007,3 hPa 0,0 l/m 18,6 km/h (3 Bft) W-SW 250 2 min 0,000 mm 0,6 UV-I 323 W/m 0,5 C -1,7 C 27,4 km/h (4 Bft) 93,62 %
01.03.2017 09:40 5,8 C 69 % 1007,3 hPa 0,0 l/m 17,8 km/h (3 Bft) W-SW 238 2 min 0,000 mm 0,6 UV-I 276 W/m 0,6 C -1,2 C 25,7 km/h (4 Bft) 100,00 %
01.03.2017 09:42 5,8 C 68 % 1007,2 hPa 0,0 l/m 21,4 km/h (4 Bft) SW 232 2 min 0,000 mm 0,6 UV-I 255 W/m 0,4 C -2,7 C 32,2 km/h (5 Bft) 97,22 %
01.03.2017 09:44 5,9 C 69 % 1007,3 hPa 0,0 l/m 16,0 km/h (3 Bft) SW 216 0 min 0,000 mm 0,6 UV-I 216 W/m 0,7 C -0,3 C 25,7 km/h (4 Bft) 98,00 %
01.03.2017 09:46 5,9 C 68 % 1007,3 hPa 0,0 l/m 17,5 km/h (3 Bft) W 269 0 min 0,000 mm 0,6 UV-I 202 W/m 0,5 C -1,0 C 24,1 km/h (4 Bft) 94,00 %
01.03.2017 09:48 5,9 C 68 % 1007,3 hPa 0,0 l/m 22,1 km/h (4 Bft) S-SW 198 2 min 0,000 mm 0,6 UV-I 242 W/m 0,5 C -2,8 C 33,8 km/h (5 Bft) 96,00 %
01.03.2017 09:50 5,9 C 68 % 1007,3 hPa 0,0 l/m 18,8 km/h (3 Bft) W 263 2 min 0,000 mm 0,7 UV-I 270 W/m 0,5 C -1,5 C 32,2 km/h (5 Bft) 100,00 %
01.03.2017 09:52 6,1 C 68 % 1007,4 hPa 0,0 l/m 21,0 km/h (4 Bft) SW 230 2 min 0,000 mm 0,7 UV-I 392 W/m 0,6 C -2,1 C 33,8 km/h (5 Bft) 98,00 %
01.03.2017 09:54 6,2 C 67 % 1007,3 hPa 0,0 l/m 24,0 km/h (4 Bft) SW 236 2 min 0,000 mm 0,8 UV-I 455 W/m 0,5 C -3,0 C 33,8 km/h (5 Bft) 97,87 %
01.03.2017 09:56 6,3 C 67 % 1007,3 hPa 0,0 l/m 26,4 km/h (4 Bft) S-SW 211 2 min 0,000 mm 0,8 UV-I 457 W/m 0,6 C -3,6 C 38,6 km/h (5 Bft) 94,74 %
01.03.2017 09:58 6,4 C 67 % 1007,3 hPa 0,0 l/m 21,2 km/h (4 Bft) W-SW 248 2 min 0,000 mm 0,7 UV-I 334 W/m 0,7 C -1,8 C 35,4 km/h (5 Bft) 100,00 %
01.03.2017 10:00 6,5 C 66 % 1007,3 hPa 0,0 l/m 20,4 km/h (4 Bft) W 261 2 min 0,153 mm 0,7 UV-I 261 W/m 0,6 C -1,4 C 30,6 km/h (5 Bft) 97,87 %
01.03.2017 10:02 6,5 C 66 % 1007,4 hPa 0,0 l/m 25,6 km/h (4 Bft) W 272 0 min 0,000 mm 0,7 UV-I 242 W/m 0,6 C -3,1 C 37,0 km/h (5 Bft) 97,87 %
01.03.2017 10:04 6,4 C 66 % 1007,5 hPa 0,0 l/m 20,1 km/h (4 Bft) W 265 0 min 0,000 mm 0,6 UV-I 206 W/m 0,5 C -1,4 C 32,2 km/h (5 Bft) 97,87 %
01.03.2017 10:06 6,4 C 67 % 1007,5 hPa 0,0 l/m 21,8 km/h (4 Bft) W-SW 252 0 min 0,000 mm 0,6 UV-I 191 W/m 0,7 C -2,0 C 32,2 km/h (5 Bft) 97,87 %
01.03.2017 10:08 6,4 C 66 % 1007,5 hPa 0,0 l/m 26,3 km/h (4 Bft) W-SW 244 0 min 0,000 mm 0,6 UV-I 194 W/m 0,5 C -3,4 C 37,0 km/h (5 Bft) 97,87 %
01.03.2017 10:10 6,4 C 65 % 1007,5 hPa 0,0 l/m 31,7 km/h (5 Bft) W-SW 256 0 min 0,000 mm 0,7 UV-I 211 W/m 0,3 C -4,8 C 45,1 km/h (6 Bft) 95,74 %
01.03.2017 10:12 6,4 C 65 % 1007,6 hPa 0,0 l/m 23,7 km/h (4 Bft) W-SW 246 0 min 0,000 mm 0,7 UV-I 240 W/m 0,3 C -2,6 C 33,8 km/h (5 Bft) 97,87 %
01.03.2017 10:14 6,4 C 66 % 1007,6 hPa 0,0 l/m 20,0 km/h (4 Bft) W-SW 258 2 min 0,000 mm 0,9 UV-I 370 W/m 0,5 C -1,4 C 29,0 km/h (5 Bft) 100,00 %
01.03.2017 10:16 6,4 C 65 % 1007,6 hPa 0,0 l/m 25,6 km/h (4 Bft) W-SW 240 2 min 0,000 mm 0,8 UV-I 342 W/m 0,3 C -3,2 C 40,2 km/h (6 Bft) 97,87 %
01.03.2017 10:18 6,4 C 64 % 1007,6 hPa 0,0 l/m 25,6 km/h (4 Bft) W-SW 255 0 min 0,000 mm 0,8 UV-I 258 W/m 0,1 C -3,2 C 41,8 km/h (6 Bft) 100,00 %
01.03.2017 10:20 6,5 C 64 % 1007,6 hPa 0,0 l/m 28,2 km/h (4 Bft) W-SW 258 2 min 0,000 mm 0,8 UV-I 279 W/m 0,2 C -3,8 C 43,5 km/h (6 Bft) 100,00 %
01.03.2017 10:22 6,5 C 65 % 1007,7 hPa 0,0 l/m 20,2 km/h (4 Bft) W 271 2 min 0,000 mm 0,8 UV-I 290 W/m 0,4 C -1,3 C 29,0 km/h (5 Bft) 100,00 %
01.03.2017 10:24 6,7 C 65 % 1007,7 hPa 0,0 l/m 20,1 km/h (4 Bft) W-SW 242 2 min 0,000 mm 1,1 UV-I 513 W/m 0,6 C -1,0 C 29,0 km/h (5 Bft) 98,36 %
01.03.2017 10:26 6,9 C 65 % 1007,7 hPa 0,0 l/m 18,4 km/h (3 Bft) SW 229 2 min 0,000 mm 1,1 UV-I 689 W/m 0,8 C -0,1 C 30,6 km/h (5 Bft) 100,00 %
01.03.2017 10:28 7,2 C 65 % 1007,7 hPa 0,0 l/m 19,7 km/h (3 Bft) W-SW 253 2 min 0,000 mm 1,1 UV-I 576 W/m 1,1 C -0,2 C 32,2 km/h (5 Bft) 100,00 %
01.03.2017 10:30 7,3 C 64 % 1007,7 hPa 0,0 l/m 19,9 km/h (4 Bft) W-SW 241 2 min 0,000 mm 0,9 UV-I 443 W/m 1,0 C -0,2 C 33,8 km/h (5 Bft) 97,87 %
01.03.2017 10:32 7,3 C 64 % 1007,8 hPa 0,0 l/m 23,3 km/h (4 Bft) SW 233 2 min 0,000 mm 0,9 UV-I 364 W/m 1,0 C -1,3 C 37,0 km/h (5 Bft) 100,00 %
01.03.2017 10:34 7,2 C 62 % 1007,8 hPa 0,0 l/m 26,3 km/h (4 Bft) W 261 2 min 0,000 mm 0,9 UV-I 364 W/m 0,4 C -2,3 C 48,3 km/h (6 Bft) 100,00 %
01.03.2017 10:36 7,1 C 62 % 1007,8 hPa 0,0 l/m 25,7 km/h (4 Bft) W-SW 248 2 min 0,000 mm 0,9 UV-I 347 W/m 0,3 C -2,3 C 38,6 km/h (5 Bft) 100,00 %
01.03.2017 10:38 7,0 C 63 % 1007,8 hPa 0,0 l/m 23,3 km/h (4 Bft) W-SW 254 2 min 0,000 mm 0,8 UV-I 338 W/m 0,4 C -1,7 C 30,6 km/h (5 Bft) 95,74 %
01.03.2017 10:40 7,0 C 63 % 1007,8 hPa 0,0 l/m 24,1 km/h (4 Bft) W-SW 250 0 min 0,000 mm 0,7 UV-I 278 W/m 0,4 C -2,0 C 33,8 km/h (5 Bft) 95,74 %
01.03.2017 10:42 7,0 C 63 % 1007,8 hPa 0,0 l/m 21,6 km/h (4 Bft) W-SW 241 0 min 0,000 mm 0,6 UV-I 224 W/m 0,4 C -1,2 C 33,8 km/h (5 Bft) 91,49 %
01.03.2017 10:44 6,9 C 64 % 1007,8 hPa 0,0 l/m 17,9 km/h (3 Bft) W-SW 256 0 min 0,000 mm 0,6 UV-I 220 W/m 0,6 C 0,1 C 27,4 km/h (4 Bft) 95,74 %
01.03.2017 10:46 6,9 C 63 % 1007,8 hPa 0,0 l/m 22,4 km/h (4 Bft) W-SW 238 0 min 0,000 mm 0,7 UV-I 228 W/m 0,4 C -1,6 C 30,6 km/h (5 Bft) 95,74 %
01.03.2017 10:48 6,9 C 64 % 1007,8 hPa 0,0 l/m 19,0 km/h (3 Bft) W-SW 247 0 min 0,000 mm 0,8 UV-I 257 W/m 0,6 C -0,3 C 32,2 km/h (5 Bft) 89,36 %
01.03.2017 10:50 6,9 C 64 % 1007,8 hPa 0,0 l/m 20,3 km/h (4 Bft) W-NW 284 0 min 0,000 mm 0,8 UV-I 280 W/m 0,6 C -0,8 C 29,0 km/h (5 Bft) 95,74 %
01.03.2017 10:52 6,9 C 63 % 1007,8 hPa 0,0 l/m 19,3 km/h (3 Bft) W-SW 245 2 min 0,000 mm 0,8 UV-I 297 W/m 0,4 C -0,5 C 37,0 km/h (5 Bft) 93,62 %
01.03.2017 10:54 7,0 C 63 % 1007,8 hPa 0,0 l/m 23,8 km/h (4 Bft) W 272 2 min 0,000 mm 0,9 UV-I 331 W/m 0,4 C -1,9 C 37,0 km/h (5 Bft) 97,87 %
01.03.2017 10:56 7,1 C 64 % 1007,8 hPa 0,0 l/m 24,7 km/h (4 Bft) SW 232 2 min 0,000 mm 0,9 UV-I 361 W/m 0,8 C -2,0 C 38,6 km/h (5 Bft) 94,00 %
01.03.2017 10:58 7,1 C 63 % 1007,8 hPa 0,0 l/m 25,1 km/h (4 Bft) W-SW 248 2 min 0,000 mm 0,8 UV-I 299 W/m 0,5 C -2,1 C 37,0 km/h (5 Bft) 93,62 %
01.03.2017 11:00 7,1 C 62 % 1007,9 hPa 0,0 l/m 24,6 km/h (4 Bft) W-SW 254 0 min 0,000 mm 0,7 UV-I 257 W/m 0,3 C -2,0 C 38,6 km/h (5 Bft) 95,74 %
01.03.2017 11:02 7,1 C 63 % 1007,9 hPa 0,0 l/m 20,4 km/h (4 Bft) SW 231 0 min 0,203 mm 0,7 UV-I 252 W/m 0,5 C -0,6 C 29,0 km/h (5 Bft) 97,92 %
01.03.2017 11:04 7,1 C 63 % 1007,8 hPa 0,0 l/m 21,4 km/h (4 Bft) SW 232 0 min 0,000 mm 0,8 UV-I 271 W/m 0,5 C -1,0 C 33,8 km/h (5 Bft) 97,87 %
01.03.2017 11:06 7,1 C 63 % 1007,8 hPa 0,0 l/m 22,6 km/h (4 Bft) W 265 0 min 0,000 mm 0,8 UV-I 273 W/m 0,5 C -1,4 C 37,0 km/h (5 Bft) 100,00 %
01.03.2017 11:08 7,1 C 63 % 1007,9 hPa 0,0 l/m 19,7 km/h (3 Bft) W-SW 238 0 min 0,000 mm 0,8 UV-I 273 W/m 0,5 C -0,3 C 32,2 km/h (5 Bft) 97,87 %
01.03.2017 11:10 7,2 C 64 % 1007,9 hPa 0,0 l/m 19,3 km/h (3 Bft) W 275 0 min 0,000 mm 0,8 UV-I 262 W/m 0,9 C -0,1 C 33,8 km/h (5 Bft) 97,37 %
01.03.2017 11:12 7,2 C 63 % 1007,9 hPa 0,0 l/m 22,1 km/h (4 Bft) W-SW 248 0 min 0,000 mm 0,7 UV-I 246 W/m 0,6 C -1,1 C 35,4 km/h (5 Bft) 95,74 %
01.03.2017 11:14 7,2 C 63 % 1007,9 hPa 0,0 l/m 22,3 km/h (4 Bft) W-SW 258 0 min 0,000 mm 0,7 UV-I 240 W/m 0,6 C -1,1 C 30,6 km/h (5 Bft) 95,74 %
01.03.2017 11:16 7,2 C 63 % 1008,0 hPa 0,0 l/m 16,2 km/h (3 Bft) W-SW 238 0 min 0,000 mm 0,7 UV-I 221 W/m 0,6 C 1,2 C 25,7 km/h (4 Bft) 97,87 %
01.03.2017 11:18 7,2 C 64 % 1008,0 hPa 0,0 l/m 19,3 km/h (3 Bft) W-SW 252 0 min 0,000 mm 0,6 UV-I 188 W/m 0,9 C -0,1 C 27,4 km/h (4 Bft) 93,62 %
01.03.2017 11:20 7,2 C 64 % 1008,0 hPa 0,0 l/m 17,4 km/h (3 Bft) SW 222 0 min 0,000 mm 0,5 UV-I 170 W/m 0,9 C 0,7 C 29,0 km/h (5 Bft) 100,00 %
01.03.2017 11:22 7,2 C 64 % 1008,0 hPa 0,0 l/m 21,2 km/h (4 Bft) SW 227 0 min 0,000 mm 0,5 UV-I 171 W/m 0,9 C -0,8 C 30,6 km/h (5 Bft) 100,00 %
01.03.2017 11:24 7,1 C 64 % 1008,1 hPa 0,0 l/m 18,7 km/h (3 Bft) W 278 0 min 0,000 mm 0,5 UV-I 166 W/m 0,8 C 0,0 C 37,0 km/h (5 Bft) 100,00 %
01.03.2017 11:26 7,1 C 63 % 1008,1 hPa 0,0 l/m 24,7 km/h (4 Bft) W-SW 257 0 min 0,000 mm 0,5 UV-I 167 W/m 0,5 C -2,0 C 35,4 km/h (5 Bft) 100,00 %
01.03.2017 11:28 7,1 C 62 % 1008,1 hPa 0,0 l/m 18,3 km/h (3 Bft) SW 221 0 min 0,000 mm 0,6 UV-I 177 W/m 0,3 C 0,2 C 29,0 km/h (5 Bft) 97,87 %
01.03.2017 11:30 7,1 C 62 % 1008,1 hPa 0,0 l/m 23,1 km/h (4 Bft) W-SW 239 0 min 0,000 mm 0,6 UV-I 172 W/m 0,3 C -1,5 C 32,2 km/h (5 Bft) 93,62 %
01.03.2017 11:32 7,1 C 61 % 1008,1 hPa 0,0 l/m 29,4 km/h (5 Bft) W-SW 258 0 min 0,000 mm 0,6 UV-I 171 W/m 0,1 C -3,3 C 41,8 km/h (6 Bft) 92,00 %
01.03.2017 11:34 7,1 C 62 % 1008,2 hPa 0,0 l/m 20,3 km/h (4 Bft) W 270 0 min 0,000 mm 0,6 UV-I 199 W/m 0,3 C -0,6 C 30,6 km/h (5 Bft) 93,62 %
01.03.2017 11:36 7,1 C 62 % 1008,3 hPa 0,0 l/m 17,4 km/h (3 Bft) W-SW 247 0 min 0,000 mm 0,7 UV-I 221 W/m 0,3 C 0,6 C 25,7 km/h (4 Bft) 97,37 %
01.03.2017 11:38 7,1 C 62 % 1008,3 hPa 0,0 l/m 19,9 km/h (4 Bft) SW 236 0 min 0,000 mm 0,7 UV-I 201 W/m 0,3 C -0,4 C 30,6 km/h (5 Bft) 97,92 %
01.03.2017 11:40 7,1 C 63 % 1008,3 hPa 0,0 l/m 15,0 km/h (3 Bft) W 273 0 min 0,000 mm 0,6 UV-I 186 W/m 0,5 C 1,6 C 20,9 km/h (4 Bft) 100,00 %
01.03.2017 11:42 7,1 C 62 % 1008,3 hPa 0,0 l/m 23,2 km/h (4 Bft) SW 221 0 min 0,000 mm 0,7 UV-I 187 W/m 0,3 C -1,5 C 37,0 km/h (5 Bft) 97,87 %
01.03.2017 11:44 7,2 C 62 % 1008,3 hPa 0,0 l/m 23,2 km/h (4 Bft) W-SW 248 0 min 0,000 mm 0,7 UV-I 200 W/m 0,4 C -1,4 C 32,2 km/h (5 Bft) 100,00 %
01.03.2017 11:46 7,1 C 61 % 1008,3 hPa 0,0 l/m 26,7 km/h (4 Bft) W-SW 245 0 min 0,000 mm 0,6 UV-I 184 W/m 0,1 C -2,6 C 40,2 km/h (6 Bft) 98,00 %
01.03.2017 11:48 7,1 C 61 % 1008,2 hPa 0,0 l/m 24,5 km/h (4 Bft) SW 217 0 min 0,000 mm 0,6 UV-I 183 W/m 0,1 C -1,9 C 33,8 km/h (5 Bft) 95,74 %
01.03.2017 11:50 7,1 C 61 % 1008,3 hPa 0,0 l/m 23,1 km/h (4 Bft) W-SW 248 0 min 0,000 mm 0,7 UV-I 213 W/m 0,1 C -1,5 C 35,4 km/h (5 Bft) 100,00 %
01.03.2017 11:52 7,1 C 61 % 1008,3 hPa 0,0 l/m 19,6 km/h (3 Bft) W-SW 248 0 min 0,000 mm 0,8 UV-I 230 W/m 0,1 C -0,3 C 29,0 km/h (5 Bft) 97,56 %
01.03.2017 11:54 7,2 C 61 % 1008,3 hPa 0,0 l/m 18,1 km/h (3 Bft) W-SW 257 0 min 0,000 mm 0,8 UV-I 207 W/m 0,2 C 0,4 C 24,1 km/h (4 Bft) 95,92 %
01.03.2017 11:56 7,2 C 62 % 1008,2 hPa 0,0 l/m 19,0 km/h (3 Bft) SW 235 0 min 0,000 mm 0,7 UV-I 183 W/m 0,4 C 0,0 C 30,6 km/h (5 Bft) 97,87 %
01.03.2017 11:58 7,2 C 61 % 1008,2 hPa 0,0 l/m 25,4 km/h (4 Bft) W-SW 246 0 min 0,000 mm 0,7 UV-I 187 W/m 0,2 C -2,1 C 38,6 km/h (5 Bft) 98,11 %
01.03.2017 12:00 7,2 C 61 % 1008,2 hPa 0,0 l/m 20,5 km/h (4 Bft) W-SW 239 0 min 0,000 mm 0,7 UV-I 196 W/m 0,2 C -0,5 C 37,0 km/h (5 Bft) 100,00 %
01.03.2017 12:02 7,2 C 61 % 1008,2 hPa 0,0 l/m 24,6 km/h (4 Bft) S-SW 211 0 min 0,152 mm 0,7 UV-I 207 W/m 0,2 C -1,8 C 33,8 km/h (5 Bft) 94,74 %
01.03.2017 12:04 7,2 C 62 % 1008,2 hPa 0,0 l/m 21,2 km/h (4 Bft) W 267 0 min 0,000 mm 0,9 UV-I 240 W/m 0,4 C -0,8 C 37,0 km/h (5 Bft) 94,23 %
01.03.2017 12:06 7,3 C 62 % 1008,1 hPa 0,0 l/m 18,6 km/h (3 Bft) W-SW 249 0 min 0,000 mm 0,9 UV-I 268 W/m 0,5 C 0,3 C 29,0 km/h (5 Bft) 97,87 %
01.03.2017 12:08 7,4 C 63 % 1008,1 hPa 0,0 l/m 19,2 km/h (3 Bft) W-SW 255 0 min 0,000 mm 1,0 UV-I 277 W/m 0,8 C 0,2 C 30,6 km/h (5 Bft) 95,74 %
01.03.2017 12:10 7,4 C 62 % 1008,2 hPa 0,0 l/m 15,6 km/h (3 Bft) W 269 0 min 0,000 mm 1,0 UV-I 298 W/m 0,6 C 1,7 C 29,0 km/h (5 Bft) 98,00 %
01.03.2017 12:12 7,6 C 61 % 1008,1 hPa 0,0 l/m 20,5 km/h (4 Bft) W-SW 242 0 min 0,000 mm 1,0 UV-I 312 W/m 0,6 C 0,0 C 32,2 km/h (5 Bft) 100,00 %
01.03.2017 12:14 7,6 C 62 % 1008,1 hPa 0,0 l/m 18,7 km/h (3 Bft) SW 229 0 min 0,000 mm 1,0 UV-I 289 W/m 0,8 C 0,7 C 30,6 km/h (5 Bft) 93,62 %
01.03.2017 12:16 7,6 C 61 % 1008,0 hPa 0,0 l/m 18,8 km/h (3 Bft) SW 236 0 min 0,000 mm 1,0 UV-I 299 W/m 0,6 C 0,6 C 27,4 km/h (4 Bft) 93,62 %
01.03.2017 12:18 7,7 C 61 % 1008,1 hPa 0,0 l/m 21,0 km/h (4 Bft) SW 235 0 min 0,000 mm 1,0 UV-I 311 W/m 0,7 C -0,0 C 37,0 km/h (5 Bft) 91,49 %
01.03.2017 12:20 7,7 C 61 % 1008,0 hPa 0,0 l/m 24,4 km/h (4 Bft) SW 223 0 min 0,000 mm 1,0 UV-I 303 W/m 0,7 C -1,1 C 37,0 km/h (5 Bft) 97,22 %
01.03.2017 12:22 7,7 C 61 % 1008,0 hPa 0,0 l/m 24,3 km/h (4 Bft) W-SW 240 2 min 0,000 mm 1,1 UV-I 325 W/m 0,7 C -1,1 C 37,0 km/h (5 Bft) 90,00 %
01.03.2017 12:24 7,8 C 61 % 1008,0 hPa 0,0 l/m 21,2 km/h (4 Bft) SW 221 2 min 0,000 mm 1,1 UV-I 331 W/m 0,8 C 0,0 C 33,8 km/h (5 Bft) 97,87 %
01.03.2017 12:26 7,8 C 60 % 1007,9 hPa 0,0 l/m 21,1 km/h (4 Bft) W-SW 249 2 min 0,000 mm 1,1 UV-I 324 W/m 0,5 C 0,1 C 29,0 km/h (5 Bft) 100,00 %
01.03.2017 12:28 7,8 C 60 % 1007,9 hPa 0,0 l/m 24,6 km/h (4 Bft) W-SW 238 2 min 0,000 mm 1,1 UV-I 324 W/m 0,5 C -1,0 C 35,4 km/h (5 Bft) 92,00 %
01.03.2017 12:30 7,8 C 61 % 1007,9 hPa 0,0 l/m 23,6 km/h (4 Bft) W-SW 244 2 min 0,000 mm 1,2 UV-I 357 W/m 0,8 C -0,7 C 33,8 km/h (5 Bft) 97,87 %
01.03.2017 12:32 8,0 C 61 % 1007,9 hPa 0,0 l/m 17,8 km/h (3 Bft) SW 236 2 min 0,000 mm 1,4 UV-I 404 W/m 0,9 C 1,5 C 27,4 km/h (4 Bft) 97,87 %
01.03.2017 12:34 8,2 C 61 % 1007,9 hPa 0,0 l/m 23,8 km/h (4 Bft) SW 217 2 min 0,000 mm 1,3 UV-I 483 W/m 1,1 C -0,3 C 37,0 km/h (5 Bft) 92,00 %
01.03.2017 12:36 8,4 C 63 % 1007,8 hPa 0,0 l/m 22,3 km/h (4 Bft) SW 216 2 min 0,000 mm 1,4 UV-I 444 W/m 1,8 C 0,5 C 35,4 km/h (5 Bft) 97,87 %
01.03.2017 12:38 8,7 C 60 % 1007,9 hPa 0,0 l/m 21,1 km/h (4 Bft) W-SW 252 2 min 0,000 mm 1,6 UV-I 438 W/m 1,4 C 1,2 C 30,6 km/h (5 Bft) 91,49 %
01.03.2017 12:40 8,8 C 60 % 1007,8 hPa 0,0 l/m 21,0 km/h (4 Bft) SW 225 2 min 0,000 mm 1,3 UV-I 457 W/m 1,5 C 1,4 C 38,6 km/h (5 Bft) 91,49 %
01.03.2017 12:42 8,7 C 59 % 1007,8 hPa 0,0 l/m 23,8 km/h (4 Bft) W-SW 244 2 min 0,000 mm 1,2 UV-I 329 W/m 1,1 C 0,4 C 38,6 km/h (5 Bft) 93,62 %
01.03.2017 12:44 8,6 C 59 % 1007,8 hPa 0,0 l/m 24,5 km/h (4 Bft) SW 232 2 min 0,000 mm 1,5 UV-I 377 W/m 1,0 C 0,1 C 43,5 km/h (6 Bft) 97,87 %
01.03.2017 12:46 8,6 C 59 % 1007,8 hPa 0,0 l/m 21,1 km/h (4 Bft) W-SW 254 2 min 0,000 mm 1,3 UV-I 459 W/m 1,0 C 1,1 C 27,4 km/h (4 Bft) 93,62 %
01.03.2017 12:48 8,6 C 60 % 1007,9 hPa 0,0 l/m 27,7 km/h (4 Bft) W-SW 257 2 min 0,000 mm 1,6 UV-I 589 W/m 1,3 C -0,8 C 43,5 km/h (6 Bft) 91,43 %
01.03.2017 12:50 8,7 C 59 % 1007,8 hPa 0,0 l/m 29,5 km/h (5 Bft) W-SW 258 2 min 0,000 mm 1,7 UV-I 773 W/m 1,1 C -1,1 C 45,1 km/h (6 Bft) 95,74 %
01.03.2017 12:52 8,9 C 60 % 1007,8 hPa 0,0 l/m 25,4 km/h (4 Bft) SW 221 2 min 0,000 mm 1,6 UV-I 801 W/m 1,6 C 0,2 C 40,2 km/h (6 Bft) 93,62 %
01.03.2017 12:54 9,1 C 61 % 1007,9 hPa 0,0 l/m 21,2 km/h (4 Bft) W-SW 252 2 min 0,000 mm 1,4 UV-I 802 W/m 2,0 C 1,7 C 30,6 km/h (5 Bft) 93,62 %
01.03.2017 12:56 9,0 C 58 % 1007,9 hPa 0,0 l/m 34,1 km/h (5 Bft) W 277 2 min 0,000 mm 1,3 UV-I 802 W/m 1,2 C -1,6 C 49,9 km/h (6 Bft) 95,83 %
01.03.2017 12:58 8,8 C 58 % 1007,9 hPa 0,0 l/m 23,5 km/h (4 Bft) W-SW 238 2 min 0,000 mm 1,2 UV-I 426 W/m 1,0 C 0,6 C 32,2 km/h (5 Bft) 93,62 %
01.03.2017 13:00 8,7 C 58 % 1007,8 hPa 0,0 l/m 30,9 km/h (5 Bft) W 272 0 min 0,280 mm 1,3 UV-I 250 W/m 0,9 C -1,4 C 43,5 km/h (6 Bft) 97,87 %
01.03.2017 13:02 8,5 C 58 % 1007,9 hPa 0,0 l/m 30,7 km/h (5 Bft) SW 236 0 min 0,000 mm 1,3 UV-I 250 W/m 0,7 C -1,6 C 41,8 km/h (6 Bft) 95,74 %
01.03.2017 13:04 8,5 C 58 % 1008,0 hPa 0,0 l/m 23,4 km/h (4 Bft) W-SW 241 0 min 0,000 mm 1,3 UV-I 250 W/m 0,7 C 0,3 C 35,4 km/h (5 Bft) 98,00 %
01.03.2017 13:06 8,6 C 59 % 1008,0 hPa 0,0 l/m 21,4 km/h (4 Bft) SW 236 0 min 0,000 mm 1,3 UV-I 250 W/m 1,0 C 1,0 C 35,4 km/h (5 Bft) 100,00 %
01.03.2017 13:08 8,7 C 59 % 1007,9 hPa 0,0 l/m 26,6 km/h (4 Bft) W 276 2 min 0,000 mm 1,3 UV-I 550 W/m 1,1 C -0,4 C 41,8 km/h (6 Bft) 100,00 %
01.03.2017 13:10 8,7 C 57 % 1008,1 hPa 0,0 l/m 29,5 km/h (5 Bft) W-SW 246 2 min 0,000 mm 1,0 UV-I 441 W/m 0,7 C -1,1 C 43,5 km/h (6 Bft) 98,11 %
01.03.2017 13:12 8,7 C 58 % 1007,9 hPa 0,0 l/m 27,1 km/h (4 Bft) SW 232 2 min 0,000 mm 1,1 UV-I 316 W/m 0,9 C -0,5 C 40,2 km/h (6 Bft) 100,00 %
01.03.2017 13:14 8,6 C 57 % 1007,9 hPa 0,0 l/m 26,3 km/h (4 Bft) W 261 0 min 0,000 mm 1,1 UV-I 279 W/m 0,6 C -0,4 C 51,5 km/h (7 Bft) 95,74 %
01.03.2017 13:16 8,7 C 59 % 1007,9 hPa 0,0 l/m 22,4 km/h (4 Bft) W-NW 285 2 min 0,000 mm 1,2 UV-I 413 W/m 1,1 C 0,8 C 35,4 km/h (5 Bft) 100,00 %
01.03.2017 13:18 8,8 C 58 % 1007,9 hPa 0,0 l/m 18,3 km/h (3 Bft) W-SW 239 2 min 0,000 mm 1,0 UV-I 371 W/m 1,0 C 2,3 C 35,4 km/h (5 Bft) 100,00 %
01.03.2017 13:20 8,8 C 59 % 1007,9 hPa 0,0 l/m 18,4 km/h (3 Bft) W 259 0 min 0,000 mm 0,9 UV-I 248 W/m 1,2 C 2,3 C 25,7 km/h (4 Bft) 100,00 %
01.03.2017 13:22 8,7 C 59 % 1007,9 hPa 0,0 l/m 19,3 km/h (3 Bft) W 269 0 min 0,000 mm 0,9 UV-I 185 W/m 1,1 C 1,9 C 29,0 km/h (5 Bft) 95,74 %
01.03.2017 13:24 8,6 C 59 % 1008,0 hPa 0,0 l/m 18,0 km/h (3 Bft) W 267 0 min 0,000 mm 0,8 UV-I 132 W/m 1,0 C 2,2 C 27,4 km/h (4 Bft) 100,00 %
01.03.2017 13:26 8,4 C 60 % 1008,0 hPa 0,0 l/m 19,8 km/h (3 Bft) W 272 0 min 0,000 mm 0,7 UV-I 127 W/m 1,1 C 1,3 C 30,6 km/h (5 Bft) 100,00 %
01.03.2017 13:28 8,4 C 58 % 1007,9 hPa 0,0 l/m 23,3 km/h (4 Bft) W 276 0 min 0,000 mm 0,6 UV-I 137 W/m 0,6 C 0,2 C 41,8 km/h (6 Bft) 97,87 %
01.03.2017 13:30 8,3 C 57 % 1007,9 hPa 0,0 l/m 20,2 km/h (4 Bft) W-NW 284 0 min 0,000 mm 0,5 UV-I 132 W/m 0,3 C 1,0 C 37,0 km/h (5 Bft) 100,00 %
01.03.2017 13:32 8,3 C 57 % 1008,0 hPa 0,0 l/m 26,8 km/h (4 Bft) W 261 0 min 0,000 mm 0,5 UV-I 131 W/m 0,3 C -1,0 C 53,1 km/h (7 Bft) 100,00 %
01.03.2017 13:34 8,2 C 57 % 1008,1 hPa 0,0 l/m 27,5 km/h (4 Bft) W 264 0 min 0,000 mm 0,2 UV-I 118 W/m 0,2 C -1,3 C 45,1 km/h (6 Bft) 97,87 %
01.03.2017 13:36 8,1 C 58 % 1008,2 hPa 0,0 l/m 31,6 km/h (5 Bft) W-SW 238 0 min 0,000 mm 0,0 UV-I 99 W/m 0,3 C -2,4 C 51,5 km/h (7 Bft) 95,74 %
01.03.2017 13:38 7,9 C 60 % 1008,3 hPa 0,0 l/m 28,1 km/h (4 Bft) W 278 0 min 0,000 mm 0,0 UV-I 79 W/m 0,6 C -1,8 C 40,2 km/h (6 Bft) 100,00 %
01.03.2017 13:40 7,7 C 63 % 1008,4 hPa 0,0 l/m 23,8 km/h (4 Bft) W 279 0 min 0,000 mm 0,0 UV-I 71 W/m 1,1 C -0,9 C 43,5 km/h (6 Bft) 100,00 %
01.03.2017 13:42 7,4 C 65 % 1008,4 hPa 0,0 l/m 24,7 km/h (4 Bft) SW 236 0 min 0,000 mm 0,2 UV-I 108 W/m 1,3 C -1,6 C 40,2 km/h (6 Bft) 97,87 %
01.03.2017 13:44 6,9 C 68 % 1008,3 hPa 0,0 l/m 21,1 km/h (4 Bft) W-SW 252 0 min 0,000 mm 0,8 UV-I 194 W/m 1,4 C -1,1 C 29,0 km/h (5 Bft) 100,00 %
01.03.2017 13:46 6,7 C 70 % 1008,4 hPa 0,0 l/m 19,9 km/h (4 Bft) SW 225 0 min 0,000 mm 1,1 UV-I 225 W/m 1,6 C -0,9 C 29,0 km/h (5 Bft) 95,74 %
01.03.2017 13:48 6,9 C 71 % 1008,4 hPa 0,0 l/m 20,0 km/h (4 Bft) W-SW 242 0 min 0,000 mm 1,2 UV-I 242 W/m 2,0 C -0,7 C 32,2 km/h (5 Bft) 93,62 %
01.03.2017 13:50 7,3 C 71 % 1008,4 hPa 0,0 l/m 18,4 km/h (3 Bft) W-SW 239 2 min 0,000 mm 1,2 UV-I 469 W/m 2,4 C 0,4 C 29,0 km/h (5 Bft) 100,00 %
01.03.2017 13:52 7,4 C 68 % 1008,3 hPa 0,0 l/m 19,5 km/h (3 Bft) W 271 2 min 0,000 mm 0,8 UV-I 350 W/m 1,9 C 0,1 C 29,0 km/h (5 Bft) 100,00 %
01.03.2017 13:54 7,4 C 67 % 1008,4 hPa 0,0 l/m 21,2 km/h (4 Bft) SW 232 0 min 0,000 mm 0,6 UV-I 162 W/m 1,7 C -0,5 C 32,2 km/h (5 Bft) 98,00 %
01.03.2017 13:56 7,4 C 66 % 1008,4 hPa 0,0 l/m 21,9 km/h (4 Bft) SW 227 0 min 0,000 mm 0,7 UV-I 215 W/m 1,5 C -0,7 C 32,2 km/h (5 Bft) 100,00 %
01.03.2017 13:58 7,5 C 66 % 1008,3 hPa 0,0 l/m 19,8 km/h (3 Bft) W 267 2 min 0,000 mm 0,9 UV-I 300 W/m 1,6 C 0,1 C 29,0 km/h (5 Bft) 100,00 %
01.03.2017 14:00 7,6 C 64 % 1008,3 hPa 0,0 l/m 22,7 km/h (4 Bft) W-SW 257 0 min 0,000 mm 0,9 UV-I 276 W/m 1,2 C -0,7 C 41,8 km/h (6 Bft) 96,00 %
01.03.2017 14:02 7,7 C 64 % 1008,3 hPa 0,0 l/m 25,9 km/h (4 Bft) SW 234 0 min 0,203 mm 0,9 UV-I 267 W/m 1,3 C -1,5 C 38,6 km/h (5 Bft) 100,00 %
01.03.2017 14:04 7,8 C 62 % 1008,2 hPa 0,0 l/m 26,2 km/h (4 Bft) W-NW 302 0 min 0,000 mm 0,9 UV-I 274 W/m 1,0 C -1,5 C 38,6 km/h (5 Bft) 97,87 %
01.03.2017 14:06 7,9 C 61 % 1008,3 hPa 0,0 l/m 25,4 km/h (4 Bft) SW 236 2 min 0,000 mm 0,9 UV-I 324 W/m 0,9 C -1,1 C 43,5 km/h (6 Bft) 100,00 %
01.03.2017 14:08 8,0 C 60 % 1008,2 hPa 0,0 l/m 22,5 km/h (4 Bft) W 273 2 min 0,000 mm 0,9 UV-I 325 W/m 0,7 C -0,1 C 41,8 km/h (6 Bft) 100,00 %
01.03.2017 14:10 8,1 C 61 % 1008,3 hPa 0,0 l/m 20,2 km/h (4 Bft) W 276 2 min 0,000 mm 0,9 UV-I 287 W/m 1,0 C 0,8 C 29,0 km/h (5 Bft) 100,00 %
01.03.2017 14:12 8,2 C 60 % 1008,2 hPa 0,0 l/m 23,6 km/h (4 Bft) W 261 2 min 0,000 mm 0,8 UV-I 272 W/m 0,9 C -0,2 C 33,8 km/h (5 Bft) 97,87 %
01.03.2017 14:14 8,2 C 60 % 1008,3 hPa 0,0 l/m 24,5 km/h (4 Bft) SW 223 0 min 0,000 mm 0,8 UV-I 266 W/m 0,9 C -0,5 C 37,0 km/h (5 Bft) 97,37 %
01.03.2017 14:16 8,2 C 60 % 1008,3 hPa 0,0 l/m 21,3 km/h (4 Bft) W-SW 240 2 min 0,000 mm 0,8 UV-I 289 W/m 0,9 C 0,5 C 32,2 km/h (5 Bft) 95,83 %
01.03.2017 14:18 8,3 C 60 % 1008,3 hPa 0,0 l/m 17,2 km/h (3 Bft) W-SW 242 2 min 0,000 mm 0,9 UV-I 386 W/m 1,0 C 2,1 C 24,1 km/h (4 Bft) 95,74 %
01.03.2017 14:20 8,4 C 60 % 1008,2 hPa 0,0 l/m 19,8 km/h (3 Bft) S-SW 213 2 min 0,000 mm 1,0 UV-I 345 W/m 1,1 C 1,3 C 27,4 km/h (4 Bft) 97,87 %
01.03.2017 14:22 8,6 C 59 % 1008,3 hPa 0,0 l/m 23,5 km/h (4 Bft) W-NW 285 2 min 0,000 mm 0,9 UV-I 337 W/m 1,0 C 0,4 C 35,4 km/h (5 Bft) 95,74 %
01.03.2017 14:24 8,7 C 60 % 1008,2 hPa 0,0 l/m 16,9 km/h (3 Bft) W 261 2 min 0,000 mm 1,0 UV-I 325 W/m 1,4 C 2,8 C 30,6 km/h (5 Bft) 95,74 %
01.03.2017 14:26 8,8 C 59 % 1008,2 hPa 0,0 l/m 22,2 km/h (4 Bft) W-SW 246 2 min 0,000 mm 1,1 UV-I 325 W/m 1,2 C 1,0 C 33,8 km/h (5 Bft) 93,62 %
01.03.2017 14:28 8,9 C 59 % 1008,3 hPa 0,0 l/m 17,6 km/h (3 Bft) W-SW 254 2 min 0,000 mm 0,8 UV-I 310 W/m 1,3 C 2,7 C 27,4 km/h (4 Bft) 95,74 %
01.03.2017 14:30 9,0 C 58 % 1008,3 hPa 0,0 l/m 20,2 km/h (4 Bft) SW 236 2 min 0,000 mm 0,8 UV-I 265 W/m 1,2 C 1,9 C 30,6 km/h (5 Bft) 96,00 %
01.03.2017 14:32 8,9 C 58 % 1008,3 hPa 0,0 l/m 17,4 km/h (3 Bft) SW 219 0 min 0,000 mm 0,7 UV-I 241 W/m 1,1 C 2,8 C 27,4 km/h (4 Bft) 95,74 %
01.03.2017 14:34 8,8 C 57 % 1008,3 hPa 0,0 l/m 21,1 km/h (4 Bft) W-SW 240 0 min 0,000 mm 0,6 UV-I 192 W/m 0,8 C 1,4 C 27,4 km/h (4 Bft) 97,87 %
01.03.2017 14:36 8,7 C 57 % 1008,5 hPa 0,0 l/m 24,1 km/h (4 Bft) W-SW 247 0 min 0,000 mm 0,5 UV-I 130 W/m 0,7 C 0,3 C 33,8 km/h (5 Bft) 95,74 %
01.03.2017 14:38 8,6 C 57 % 1008,4 hPa 0,0 l/m 21,7 km/h (4 Bft) W-SW 240 0 min 0,000 mm 0,0 UV-I 109 W/m 0,6 C 0,9 C 29,0 km/h (5 Bft) 95,74 %
01.03.2017 14:40 8,4 C 58 % 1008,5 hPa 0,0 l/m 19,6 km/h (3 Bft) W-SW 241 0 min 0,000 mm 0,4 UV-I 136 W/m 0,6 C 1,4 C 30,6 km/h (5 Bft) 95,74 %
01.03.2017 14:42 8,4 C 59 % 1008,6 hPa 0,0 l/m 23,1 km/h (4 Bft) W-SW 240 0 min 0,000 mm 0,5 UV-I 169 W/m 0,9 C 0,2 C 37,0 km/h (5 Bft) 91,49 %
01.03.2017 14:44 8,4 C 59 % 1008,5 hPa 0,0 l/m 20,0 km/h (4 Bft) SW 232 0 min 0,000 mm 0,6 UV-I 167 W/m 0,9 C 1,2 C 27,4 km/h (4 Bft) 96,00 %
01.03.2017 14:46 8,4 C 60 % 1008,7 hPa 0,0 l/m 15,1 km/h (3 Bft) W 264 0 min 0,000 mm 0,5 UV-I 156 W/m 1,1 C 3,2 C 20,9 km/h (4 Bft) 100,00 %
01.03.2017 14:48 8,4 C 61 % 1008,7 hPa 0,0 l/m 15,8 km/h (3 Bft) W-SW 252 0 min 0,000 mm 0,5 UV-I 144 W/m 1,3 C 2,8 C 20,9 km/h (4 Bft) 100,00 %
01.03.2017 14:50 8,4 C 59 % 1008,7 hPa 0,0 l/m 18,1 km/h (3 Bft) W-NW 282 0 min 0,000 mm 0,2 UV-I 138 W/m 0,9 C 1,9 C 29,0 km/h (5 Bft) 97,87 %
01.03.2017 14:52 8,4 C 58 % 1008,6 hPa 0,0 l/m 21,0 km/h (4 Bft) W-SW 246 0 min 0,000 mm 0,0 UV-I 126 W/m 0,6 C 0,9 C 37,0 km/h (5 Bft) 97,37 %
01.03.2017 14:54 8,4 C 57 % 1008,6 hPa 0,0 l/m 24,1 km/h (4 Bft) W 278 0 min 0,000 mm 0,0 UV-I 110 W/m 0,4 C -0,1 C 30,6 km/h (5 Bft) 95,83 %
01.03.2017 14:56 8,3 C 56 % 1008,7 hPa 0,0 l/m 28,3 km/h (4 Bft) W 268 0 min 0,000 mm 0,0 UV-I 97 W/m 0,0 C -1,3 C 35,4 km/h (5 Bft) 97,96 %
01.03.2017 14:58 8,3 C 57 % 1008,7 hPa 0,0 l/m 21,1 km/h (4 Bft) W-NW 286 0 min 0,000 mm 0,0 UV-I 91 W/m 0,3 C 0,7 C 30,6 km/h (5 Bft) 96,00 %
01.03.2017 15:00 8,3 C 56 % 1008,6 hPa 0,0 l/m 21,8 km/h (4 Bft) W-SW 238 0 min 0,000 mm 0,0 UV-I 96 W/m 0,0 C 0,5 C 37,0 km/h (5 Bft) 97,92 %
01.03.2017 15:02 8,2 C 57 % 1008,7 hPa 0,0 l/m 19,7 km/h (3 Bft) W 268 0 min 0,203 mm 0,0 UV-I 110 W/m 0,2 C 1,1 C 29,0 km/h (5 Bft) 95,92 %
01.03.2017 15:04 8,2 C 56 % 1008,7 hPa 0,0 l/m 21,5 km/h (4 Bft) SW 234 0 min 0,000 mm 0,0 UV-I 135 W/m -0,0 C 0,5 C 30,6 km/h (5 Bft) 97,87 %
01.03.2017 15:06 8,2 C 57 % 1008,8 hPa 0,0 l/m 19,2 km/h (3 Bft) W 273 0 min 0,000 mm 0,0 UV-I 148 W/m 0,2 C 1,2 C 29,0 km/h (5 Bft) 97,87 %
01.03.2017 15:08 8,2 C 57 % 1008,9 hPa 0,0 l/m 16,5 km/h (3 Bft) SW 234 0 min 0,000 mm 0,0 UV-I 146 W/m 0,2 C 2,3 C 20,9 km/h (4 Bft) 94,74 %
01.03.2017 15:10 8,2 C 57 % 1008,9 hPa 0,0 l/m 18,6 km/h (3 Bft) W-SW 255 0 min 0,000 mm 0,0 UV-I 135 W/m 0,2 C 1,5 C 27,4 km/h (4 Bft) 100,00 %
01.03.2017 15:12 8,2 C 57 % 1008,9 hPa 0,0 l/m 19,4 km/h (3 Bft) W 264 0 min 0,000 mm 0,0 UV-I 135 W/m 0,2 C 1,2 C 29,0 km/h (5 Bft) 97,87 %
01.03.2017 15:14 8,2 C 58 % 1008,9 hPa 0,0 l/m 16,6 km/h (3 Bft) SW 236 0 min 0,000 mm 0,0 UV-I 149 W/m 0,4 C 2,3 C 22,5 km/h (4 Bft) 100,00 %
01.03.2017 15:16 8,3 C 58 % 1008,9 hPa 0,0 l/m 22,6 km/h (4 Bft) W 265 0 min 0,000 mm 0,0 UV-I 169 W/m 0,5 C 0,2 C 37,0 km/h (5 Bft) 97,87 %
01.03.2017 15:18 8,3 C 58 % 1008,9 hPa 0,0 l/m 18,1 km/h (3 Bft) W-SW 244 0 min 0,000 mm 0,0 UV-I 165 W/m 0,5 C 1,8 C 27,4 km/h (4 Bft) 100,00 %
01.03.2017 15:20 8,3 C 58 % 1008,9 hPa 0,0 l/m 17,4 km/h (3 Bft) W 260 0 min 0,000 mm 0,0 UV-I 150 W/m 0,5 C 2,1 C 25,7 km/h (4 Bft) 95,74 %
01.03.2017 15:22 8,3 C 58 % 1008,9 hPa 0,0 l/m 16,7 km/h (3 Bft) W 263 0 min 0,000 mm 0,0 UV-I 151 W/m 0,5 C 2,3 C 30,6 km/h (5 Bft) 100,00 %
01.03.2017 15:24 8,3 C 58 % 1008,9 hPa 0,0 l/m 25,2 km/h (4 Bft) W 263 0 min 0,000 mm 0,0 UV-I 179 W/m 0,5 C -0,5 C 37,0 km/h (5 Bft) 98,11 %
01.03.2017 15:26 8,3 C 58 % 1008,9 hPa 0,0 l/m 21,1 km/h (4 Bft) W 270 0 min 0,000 mm 0,0 UV-I 146 W/m 0,5 C 0,7 C 32,2 km/h (5 Bft) 96,00 %
01.03.2017 15:28 8,3 C 58 % 1008,8 hPa 0,0 l/m 20,8 km/h (4 Bft) W-SW 244 0 min 0,000 mm 0,0 UV-I 151 W/m 0,5 C 0,8 C 32,2 km/h (5 Bft) 100,00 %
01.03.2017 15:30 8,4 C 57 % 1008,8 hPa 0,0 l/m 17,5 km/h (3 Bft) W-NW 286 0 min 0,000 mm 0,0 UV-I 158 W/m 0,4 C 2,1 C 30,6 km/h (5 Bft) 97,37 %
01.03.2017 15:32 8,4 C 58 % 1008,8 hPa 0,0 l/m 13,6 km/h (3 Bft) W 259 2 min 0,000 mm 0,0 UV-I 192 W/m 0,6 C 3,9 C 32,2 km/h (5 Bft) 100,00 %
01.03.2017 15:34 8,4 C 56 % 1008,9 hPa 0,0 l/m 21,2 km/h (4 Bft) W 263 2 min 0,000 mm 0,0 UV-I 309 W/m 0,1 C 0,8 C 37,0 km/h (5 Bft) 95,83 %
01.03.2017 15:36 8,5 C 56 % 1008,9 hPa 0,0 l/m 13,1 km/h (3 Bft) W-SW 251 2 min 0,000 mm 0,0 UV-I 187 W/m 0,2 C 4,2 C 25,7 km/h (4 Bft) 97,87 %
01.03.2017 15:38 8,7 C 57 % 1008,8 hPa 0,0 l/m 14,7 km/h (3 Bft) W-SW 257 2 min 0,000 mm 0,0 UV-I 374 W/m 0,7 C 3,7 C 29,0 km/h (5 Bft) 100,00 %
01.03.2017 15:40 8,8 C 57 % 1008,8 hPa 0,0 l/m 13,0 km/h (3 Bft) W 269 2 min 0,000 mm 0,0 UV-I 470 W/m 0,8 C 4,6 C 19,3 km/h (3 Bft) 98,00 %
01.03.2017 15:42 9,1 C 57 % 1008,9 hPa 0,0 l/m 10,3 km/h (2 Bft) W-SW 252 2 min 0,000 mm 0,3 UV-I 433 W/m 1,0 C 6,4 C 19,3 km/h (3 Bft) 97,87 %
01.03.2017 15:44 9,3 C 57 % 1008,8 hPa 0,0 l/m 13,6 km/h (3 Bft) W-SW 250 2 min 0,000 mm 0,3 UV-I 428 W/m 1,2 C 4,9 C 22,5 km/h (4 Bft) 98,00 %
01.03.2017 15:46 9,3 C 56 % 1008,8 hPa 0,0 l/m 9,8 km/h (2 Bft) W-SW 256 2 min 0,000 mm 0,0 UV-I 405 W/m 1,0 C 6,9 C 19,3 km/h (3 Bft) 100,00 %
01.03.2017 15:48 9,4 C 55 % 1008,8 hPa 0,0 l/m 14,4 km/h (3 Bft) W 273 2 min 0,000 mm 0,0 UV-I 422 W/m 0,8 C 4,7 C 24,1 km/h (4 Bft) 95,74 %
01.03.2017 15:50 9,5 C 56 % 1008,8 hPa 0,0 l/m 10,4 km/h (2 Bft) W 261 2 min 0,000 mm 0,0 UV-I 377 W/m 1,2 C 6,8 C 16,1 km/h (3 Bft) 97,87 %
01.03.2017 15:52 9,6 C 56 % 1008,8 hPa 0,0 l/m 12,5 km/h (3 Bft) W 261 2 min 0,000 mm 0,0 UV-I 319 W/m 1,3 C 5,8 C 16,1 km/h (3 Bft) 100,00 %
01.03.2017 15:54 9,7 C 55 % 1008,9 hPa 0,0 l/m 18,4 km/h (3 Bft) SW 215 2 min 0,000 mm 0,0 UV-I 358 W/m 1,1 C 3,4 C 27,4 km/h (4 Bft) 97,37 %
01.03.2017 15:56 9,6 C 54 % 1008,9 hPa 0,0 l/m 16,1 km/h (3 Bft) W 275 2 min 0,000 mm 0,0 UV-I 369 W/m 0,8 C 4,2 C 25,7 km/h (4 Bft) 100,00 %
01.03.2017 15:58 9,6 C 54 % 1008,9 hPa 0,0 l/m 17,1 km/h (3 Bft) W 265 2 min 0,000 mm 0,0 UV-I 353 W/m 0,8 C 3,8 C 27,4 km/h (4 Bft) 97,87 %
01.03.2017 16:00 9,6 C 56 % 1008,9 hPa 0,0 l/m 13,1 km/h (3 Bft) W 262 2 min 0,000 mm 0,0 UV-I 320 W/m 1,3 C 5,5 C 20,9 km/h (4 Bft) 100,00 %
01.03.2017 16:02 9,5 C 53 % 1008,8 hPa 0,0 l/m 23,7 km/h (4 Bft) W 260 2 min 0,178 mm 0,0 UV-I 185 W/m 0,4 C 1,5 C 35,4 km/h (5 Bft) 100,00 %
01.03.2017 16:04 9,3 C 53 % 1008,7 hPa 0,0 l/m 19,7 km/h (3 Bft) W 259 2 min 0,000 mm 0,0 UV-I 278 W/m 0,2 C 2,5 C 32,2 km/h (5 Bft) 93,62 %
01.03.2017 16:06 9,3 C 53 % 1008,7 hPa 0,0 l/m 21,6 km/h (4 Bft) W 268 2 min 0,000 mm 0,0 UV-I 249 W/m 0,2 C 1,9 C 33,8 km/h (5 Bft) 100,00 %
01.03.2017 16:08 9,2 C 53 % 1008,7 hPa 0,0 l/m 23,7 km/h (4 Bft) W 271 2 min 0,000 mm 0,0 UV-I 222 W/m 0,1 C 1,1 C 35,4 km/h (5 Bft) 97,87 %
01.03.2017 16:10 9,1 C 53 % 1008,8 hPa 0,0 l/m 21,3 km/h (4 Bft) W-SW 254 2 min 0,000 mm 0,0 UV-I 222 W/m 0,0 C 1,7 C 33,8 km/h (5 Bft) 94,34 %
01.03.2017 16:12 9,1 C 52 % 1008,7 hPa 0,0 l/m 25,8 km/h (4 Bft) S-SW 204 2 min 0,000 mm 0,0 UV-I 227 W/m -0,2 C 0,4 C 43,5 km/h (6 Bft) 95,74 %
01.03.2017 16:14 9,1 C 53 % 1008,7 hPa 0,0 l/m 22,0 km/h (4 Bft) W 281 2 min 0,000 mm 0,0 UV-I 222 W/m 0,0 C 1,5 C 29,0 km/h (5 Bft) 97,87 %
01.03.2017 16:16 9,0 C 54 % 1008,7 hPa 0,0 l/m 12,8 km/h (3 Bft) W-NW 292 2 min 0,000 mm 0,0 UV-I 218 W/m 0,2 C 5,0 C 19,3 km/h (3 Bft) 94,44 %
01.03.2017 16:18 9,0 C 54 % 1008,7 hPa 0,0 l/m 15,2 km/h (3 Bft) W 263 2 min 0,000 mm 0,0 UV-I 218 W/m 0,2 C 3,8 C 29,0 km/h (5 Bft) 98,00 %
01.03.2017 16:20 8,9 C 54 % 1008,7 hPa 0,0 l/m 16,2 km/h (3 Bft) W-SW 250 2 min 0,000 mm 0,0 UV-I 213 W/m 0,1 C 3,3 C 29,0 km/h (5 Bft) 93,62 %
01.03.2017 16:22 8,9 C 55 % 1008,8 hPa 0,0 l/m 15,3 km/h (3 Bft) SW 236 2 min 0,000 mm 0,0 UV-I 201 W/m 0,4 C 3,7 C 20,9 km/h (4 Bft) 93,62 %
01.03.2017 16:24 8,9 C 55 % 1008,6 hPa 0,0 l/m 20,9 km/h (4 Bft) W 269 2 min 0,000 mm 0,0 UV-I 193 W/m 0,4 C 1,6 C 32,2 km/h (5 Bft) 95,74 %
01.03.2017 16:26 8,9 C 53 % 1008,7 hPa 0,0 l/m 22,7 km/h (4 Bft) W-SW 250 2 min 0,000 mm 0,0 UV-I 180 W/m -0,1 C 1,0 C 32,2 km/h (5 Bft) 97,87 %
01.03.2017 16:28 8,9 C 54 % 1008,8 hPa 0,0 l/m 18,7 km/h (3 Bft) W-SW 248 0 min 0,000 mm 0,0 UV-I 103 W/m 0,1 C 2,3 C 30,6 km/h (5 Bft) 95,74 %
01.03.2017 16:30 8,8 C 54 % 1008,8 hPa 0,0 l/m 16,5 km/h (3 Bft) W 276 2 min 0,000 mm 0,0 UV-I 119 W/m 0,0 C 3,0 C 30,6 km/h (5 Bft) 92,00 %
01.03.2017 16:32 8,7 C 55 % 1008,9 hPa 0,0 l/m 15,2 km/h (3 Bft) W 270 0 min 0,000 mm 0,0 UV-I 51 W/m 0,2 C 3,5 C 24,1 km/h (4 Bft) 97,87 %
01.03.2017 16:34 8,6 C 55 % 1008,9 hPa 0,0 l/m 17,1 km/h (3 Bft) W 262 0 min 0,000 mm 0,0 UV-I 47 W/m 0,1 C 2,6 C 29,0 km/h (5 Bft) 95,74 %
01.03.2017 16:36 8,5 C 55 % 1008,9 hPa 0,0 l/m 11,1 km/h (2 Bft) SW 230 0 min 0,000 mm 0,0 UV-I 83 W/m -0,0 C 5,3 C 17,7 km/h (3 Bft) 95,74 %
01.03.2017 16:38 8,4 C 57 % 1008,9 hPa 0,0 l/m 14,2 km/h (3 Bft) W 263 2 min 0,000 mm 0,0 UV-I 123 W/m 0,4 C 3,6 C 24,1 km/h (4 Bft) 98,00 %
01.03.2017 16:40 8,4 C 56 % 1008,9 hPa 0,0 l/m 17,6 km/h (3 Bft) W-SW 243 0 min 0,000 mm 0,0 UV-I 52 W/m 0,1 C 2,1 C 24,1 km/h (4 Bft) 94,29 %
01.03.2017 16:42 8,4 C 55 % 1009,0 hPa 0,0 l/m 16,2 km/h (3 Bft) W-NW 282 0 min 0,000 mm 0,0 UV-I 48 W/m -0,1 C 2,7 C 24,1 km/h (4 Bft) 98,00 %
01.03.2017 16:44 8,3 C 56 % 1009,0 hPa 0,0 l/m 16,6 km/h (3 Bft) W 263 0 min 0,000 mm 0,0 UV-I 53 W/m 0,0 C 2,4 C 24,1 km/h (4 Bft) 95,74 %
01.03.2017 16:46 8,3 C 56 % 1009,0 hPa 0,0 l/m 10,6 km/h (2 Bft) W-SW 241 0 min 0,000 mm 0,0 UV-I 62 W/m 0,0 C 5,4 C 17,7 km/h (3 Bft) 95,74 %
01.03.2017 16:48 8,3 C 56 % 1009,0 hPa 0,0 l/m 16,2 km/h (3 Bft) W 261 0 min 0,000 mm 0,0 UV-I 63 W/m 0,0 C 2,6 C 27,4 km/h (4 Bft) 97,87 %
01.03.2017 16:50 8,3 C 56 % 1008,9 hPa 0,0 l/m 12,0 km/h (2 Bft) W-SW 257 0 min 0,000 mm 0,0 UV-I 62 W/m 0,0 C 4,6 C 19,3 km/h (3 Bft) 95,74 %
01.03.2017 16:52 8,3 C 56 % 1008,9 hPa 0,0 l/m 11,4 km/h (2 Bft) W 275 0 min 0,000 mm 0,0 UV-I 61 W/m 0,0 C 4,9 C 20,9 km/h (4 Bft) 97,87 %
01.03.2017 16:54 8,3 C 57 % 1008,9 hPa 0,0 l/m 11,2 km/h (2 Bft) W-SW 250 0 min 0,000 mm 0,0 UV-I 55 W/m 0,3 C 5,0 C 19,3 km/h (3 Bft) 91,67 %
01.03.2017 16:56 8,2 C 57 % 1009,0 hPa 0,0 l/m 10,8 km/h (2 Bft) W-SW 257 0 min 0,000 mm 0,0 UV-I 46 W/m 0,2 C 5,1 C 16,1 km/h (3 Bft) 97,87 %
01.03.2017 16:58 8,2 C 57 % 1009,0 hPa 0,0 l/m 12,7 km/h (3 Bft) W 279 0 min 0,000 mm 0,0 UV-I 45 W/m 0,2 C 4,1 C 19,3 km/h (3 Bft) 95,74 %
01.03.2017 17:00 8,2 C 58 % 1009,0 hPa 0,0 l/m 12,9 km/h (3 Bft) W 261 0 min 0,127 mm 0,0 UV-I 37 W/m 0,4 C 4,0 C 19,3 km/h (3 Bft) 100,00 %
01.03.2017 17:02 8,2 C 57 % 1009,0 hPa 0,0 l/m 13,9 km/h (3 Bft) W-NW 286 0 min 0,000 mm 0,0 UV-I 26 W/m 0,2 C 3,5 C 20,9 km/h (4 Bft) 93,62 %
01.03.2017 17:04 8,2 C 57 % 1008,9 hPa 0,0 l/m 14,1 km/h (3 Bft) W 281 0 min 0,000 mm 0,0 UV-I 23 W/m 0,2 C 3,4 C 19,3 km/h (3 Bft) 100,00 %
01.03.2017 17:06 8,2 C 57 % 1009,0 hPa 0,0 l/m 11,4 km/h (2 Bft) W-SW 250 0 min 0,000 mm 0,0 UV-I 22 W/m 0,2 C 4,8 C 17,7 km/h (3 Bft) 100,00 %
01.03.2017 17:08 8,2 C 58 % 1008,9 hPa 0,0 l/m 10,5 km/h (2 Bft) W-NW 282 0 min 0,000 mm 0,0 UV-I 21 W/m 0,4 C 5,3 C 16,1 km/h (3 Bft) 95,74 %
01.03.2017 17:10 8,1 C 57 % 1009,0 hPa 0,0 l/m 11,3 km/h (2 Bft) S-SW 213 0 min 0,000 mm 0,0 UV-I 19 W/m 0,1 C 4,7 C 14,5 km/h (3 Bft) 98,00 %
01.03.2017 17:12 8,1 C 58 % 1009,0 hPa 0,0 l/m 10,0 km/h (2 Bft) W-SW 252 0 min 0,000 mm 0,0 UV-I 19 W/m 0,3 C 5,5 C 14,5 km/h (3 Bft) 93,62 %
01.03.2017 17:14 8,1 C 58 % 1009,0 hPa 0,0 l/m 9,7 km/h (2 Bft) W-SW 257 0 min 0,000 mm 0,0 UV-I 17 W/m 0,3 C 5,7 C 14,5 km/h (3 Bft) 97,87 %
01.03.2017 17:16 8,0 C 59 % 1009,0 hPa 0,0 l/m 11,4 km/h (2 Bft) SW 235 0 min 0,000 mm 0,0 UV-I 15 W/m 0,5 C 4,5 C 14,5 km/h (3 Bft) 91,49 %
01.03.2017 17:18 7,9 C 59 % 1009,0 hPa 0,0 l/m 12,1 km/h (2 Bft) W 259 0 min 0,000 mm 0,0 UV-I 14 W/m 0,4 C 4,0 C 14,5 km/h (3 Bft) 92,50 %
01.03.2017 17:20 7,9 C 59 % 1009,0 hPa 0,0 l/m 10,3 km/h (2 Bft) W 259 0 min 0,000 mm 0,0 UV-I 14 W/m 0,4 C 5,1 C 14,5 km/h (3 Bft) 97,87 %
01.03.2017 17:22 7,9 C 60 % 1009,0 hPa 0,0 l/m 10,6 km/h (2 Bft) W-SW 255 0 min 0,000 mm 0,0 UV-I 16 W/m 0,6 C 4,9 C 16,1 km/h (3 Bft) 95,74 %
01.03.2017 17:24 7,8 C 60 % 1009,0 hPa 0,0 l/m 8,9 km/h (2 Bft) SW 236 0 min 0,000 mm 0,0 UV-I 17 W/m 0,5 C 5,9 C 12,9 km/h (3 Bft) 95,74 %
01.03.2017 17:26 7,8 C 60 % 1009,0 hPa 0,0 l/m 6,2 km/h (2 Bft) W-SW 254 0 min 0,000 mm 0,0 UV-I 16 W/m 0,5 C 7,8 C 11,3 km/h (2 Bft) 92,00 %
01.03.2017 17:28 7,7 C 60 % 1009,0 hPa 0,0 l/m 8,9 km/h (2 Bft) W-SW 243 0 min 0,000 mm 0,0 UV-I 16 W/m 0,4 C 5,8 C 14,5 km/h (3 Bft) 91,49 %
01.03.2017 17:30 7,7 C 60 % 1009,0 hPa 0,0 l/m 7,2 km/h (2 Bft) W-SW 257 0 min 0,000 mm 0,0 UV-I 15 W/m 0,4 C 7,1 C 11,3 km/h (2 Bft) 91,49 %
01.03.2017 17:32 7,7 C 61 % 1009,0 hPa 0,0 l/m 5,8 km/h (2 Bft) W-SW 240 0 min 0,000 mm 0,0 UV-I 14 W/m 0,7 C 7,7 C 6,4 km/h (2 Bft) 97,87 %
01.03.2017 17:34 7,6 C 62 % 1009,1 hPa 0,0 l/m 5,9 km/h (2 Bft) W-SW 254 0 min 0,000 mm 0,0 UV-I 13 W/m 0,8 C 7,6 C 8,0 km/h (2 Bft) 100,00 %
01.03.2017 17:36 7,6 C 61 % 1009,1 hPa 0,0 l/m 5,1 km/h (1 Bft) W-SW 257 2 min 0,000 mm 0,0 UV-I 12 W/m 0,6 C 7,6 C 6,4 km/h (2 Bft) 95,74 %
01.03.2017 17:38 7,5 C 61 % 1009,1 hPa 0,0 l/m 4,6 km/h (1 Bft) SW 218 0 min 0,000 mm 0,0 UV-I 11 W/m 0,5 C 7,5 C 6,4 km/h (2 Bft) 97,92 %
01.03.2017 17:40 7,4 C 62 % 1009,1 hPa 0,0 l/m 5,0 km/h (1 Bft) W-SW 239 0 min 0,000 mm 0,0 UV-I 10 W/m 0,6 C 7,4 C 6,4 km/h (2 Bft) 97,87 %
01.03.2017 17:42 7,4 C 62 % 1009,2 hPa 0,0 l/m 4,5 km/h (1 Bft) SW 231 0 min 0,000 mm 0,0 UV-I 9 W/m 0,6 C 7,4 C 6,4 km/h (2 Bft) 97,87 %
01.03.2017 17:44 7,4 C 63 % 1009,2 hPa 0,0 l/m 5,3 km/h (1 Bft) SW 218 0 min 0,000 mm 0,0 UV-I 7 W/m 0,8 C 7,4 C 6,4 km/h (2 Bft) 95,74 %
01.03.2017 17:46 7,4 C 63 % 1009,2 hPa 0,0 l/m 5,6 km/h (1 Bft) SW 214 0 min 0,000 mm 0,0 UV-I 7 W/m 0,8 C 7,4 C 8,0 km/h (2 Bft) 93,62 %
01.03.2017 17:48 7,3 C 63 % 1009,2 hPa 0,0 l/m 5,1 km/h (1 Bft) S-SW 207 0 min 0,000 mm 0,0 UV-I 5 W/m 0,7 C 7,3 C 6,4 km/h (2 Bft) 100,00 %
01.03.2017 17:50 7,3 C 64 % 1009,2 hPa 0,0 l/m 4,8 km/h (1 Bft) SW 217 0 min 0,000 mm 0,0 UV-I 5 W/m 1,0 C 7,3 C 9,7 km/h (2 Bft) 93,62 %
01.03.2017 17:52 7,2 C 65 % 1009,3 hPa 0,0 l/m 4,1 km/h (1 Bft) SW 214 0 min 0,000 mm 0,0 UV-I 1 W/m 1,1 C 7,2 C 6,4 km/h (2 Bft) 94,74 %
01.03.2017 17:54 7,2 C 65 % 1009,3 hPa 0,0 l/m 3,6 km/h (1 Bft) SW 215 0 min 0,000 mm 0,0 UV-I 0 W/m 1,1 C 7,2 C 8,0 km/h (2 Bft) 97,87 %
01.03.2017 17:56 7,2 C 65 % 1009,2 hPa 0,0 l/m 5,7 km/h (1 Bft) S-SW 213 0 min 0,000 mm 0,0 UV-I 0 W/m 1,1 C 7,2 C 8,0 km/h (2 Bft) 93,62 %
01.03.2017 17:58 7,2 C 65 % 1009,3 hPa 0,0 l/m 4,6 km/h (1 Bft) SW 218 0 min 0,000 mm 0,0 UV-I 0 W/m 1,1 C 7,2 C 6,4 km/h (2 Bft) 98,08 %
01.03.2017 18:00 7,2 C 65 % 1009,4 hPa 0,0 l/m 3,3 km/h (1 Bft) SW 218 0 min 0,000 mm 0,0 UV-I 0 W/m 1,1 C 7,2 C 4,8 km/h (1 Bft) 95,74 %
01.03.2017 18:03 7,1 C 66 % 1009,3 hPa 0,0 l/m 3,4 km/h (1 Bft) SW 218 0 min 0,051 mm 0,0 UV-I 0 W/m 1,2 C 7,1 C 6,4 km/h (2 Bft) 94,59 %
01.03.2017 18:04 7,1 C 66 % 1009,3 hPa 0,0 l/m 3,3 km/h (1 Bft) SW 218 0 min 0,000 mm 0,0 UV-I 0 W/m 1,2 C 7,1 C 6,4 km/h (2 Bft) 91,30 %
01.03.2017 18:06 7,1 C 65 % 1009,3 hPa 0,0 l/m 3,0 km/h (1 Bft) SW 218 0 min 0,000 mm 0,0 UV-I 0 W/m 1,0 C 7,1 C 6,4 km/h (2 Bft) 97,87 %
01.03.2017 18:08 7,1 C 66 % 1009,4 hPa 0,0 l/m 1,9 km/h (1 Bft) SW 218 0 min 0,000 mm 0,0 UV-I 0 W/m 1,2 C 7,1 C 3,2 km/h (1 Bft) 97,37 %
01.03.2017 18:10 7,1 C 65 % 1009,4 hPa 0,0 l/m 3,9 km/h (1 Bft) SW 229 0 min 0,000 mm 0,0 UV-I 0 W/m 1,0 C 7,1 C 6,4 km/h (2 Bft) 100,00 %
01.03.2017 18:12 7,0 C 66 % 1009,4 hPa 0,0 l/m 1,8 km/h (1 Bft) SW 229 0 min 0,000 mm 0,0 UV-I 0 W/m 1,1 C 7,0 C 3,2 km/h (1 Bft) 97,87 %
01.03.2017 18:14 7,0 C 67 % 1009,4 hPa 0,0 l/m 2,8 km/h (1 Bft) SW 229 0 min 0,000 mm 0,0 UV-I 0 W/m 1,3 C 7,0 C 4,8 km/h (1 Bft) 100,00 %
01.03.2017 18:16 6,9 C 67 % 1009,4 hPa 0,0 l/m 3,4 km/h (1 Bft) SW 229 0 min 0,000 mm 0,0 UV-I 0 W/m 1,2 C 6,9 C 6,4 km/h (2 Bft) 97,87 %
01.03.2017 18:18 6,9 C 67 % 1009,4 hPa 0,0 l/m 3,9 km/h (1 Bft) SW 229 0 min 0,000 mm 0,0 UV-I 0 W/m 1,2 C 6,9 C 4,8 km/h (1 Bft) 100,00 %
01.03.2017 18:20 6,8 C 67 % 1009,4 hPa 0,0 l/m 4,3 km/h (1 Bft) SW 232 0 min 0,000 mm 0,0 UV-I 0 W/m 1,1 C 6,8 C 6,4 km/h (2 Bft) 93,62 %
01.03.2017 18:22 6,8 C 69 % 1009,4 hPa 0,0 l/m 4,8 km/h (1 Bft) SW 214 0 min 0,000 mm 0,0 UV-I 0 W/m 1,5 C 6,8 C 8,0 km/h (2 Bft) 96,00 %
01.03.2017 18:24 6,8 C 68 % 1009,5 hPa 0,0 l/m 5,4 km/h (1 Bft) S-SW 208 0 min 0,000 mm 0,0 UV-I 0 W/m 1,3 C 6,8 C 8,0 km/h (2 Bft) 94,74 %
01.03.2017 18:26 6,8 C 68 % 1009,5 hPa 0,0 l/m 4,2 km/h (1 Bft) S-SW 209 0 min 0,000 mm 0,0 UV-I 0 W/m 1,3 C 6,8 C 8,0 km/h (2 Bft) 89,36 %
01.03.2017 18:28 6,8 C 68 % 1009,5 hPa 0,0 l/m 5,1 km/h (1 Bft) S-SW 207 0 min 0,000 mm 0,0 UV-I 0 W/m 1,3 C 6,8 C 6,4 km/h (2 Bft) 97,87 %
01.03.2017 18:30 6,8 C 67 % 1009,5 hPa 0,0 l/m 4,3 km/h (1 Bft) S-SW 207 0 min 0,000 mm 0,0 UV-I 0 W/m 1,1 C 6,8 C 6,4 km/h (2 Bft) 93,88 %
01.03.2017 18:32 6,8 C 67 % 1009,5 hPa 0,0 l/m 4,6 km/h (1 Bft) S-SW 205 0 min 0,000 mm 0,0 UV-I 0 W/m 1,1 C 6,8 C 8,0 km/h (2 Bft) 95,74 %
01.03.2017 18:34 6,8 C 66 % 1009,5 hPa 0,0 l/m 4,0 km/h (1 Bft) S-SW 199 0 min 0,000 mm 0,0 UV-I 0 W/m 0,9 C 6,8 C 6,4 km/h (2 Bft) 93,62 %
01.03.2017 18:36 6,8 C 66 % 1009,5 hPa 0,0 l/m 3,9 km/h (1 Bft) S-SW 199 0 min 0,000 mm 0,0 UV-I 0 W/m 0,9 C 6,8 C 6,4 km/h (2 Bft) 96,00 %
01.03.2017 18:38 6,8 C 67 % 1009,6 hPa 0,0 l/m 2,9 km/h (1 Bft) S-SW 199 0 min 0,000 mm 0,0 UV-I 0 W/m 1,1 C 6,8 C 4,8 km/h (1 Bft) 89,36 %
01.03.2017 18:40 6,8 C 67 % 1009,6 hPa 0,0 l/m 3,4 km/h (1 Bft) S-SW 199 0 min 0,000 mm 0,0 UV-I 0 W/m 1,1 C 6,8 C 6,4 km/h (2 Bft) 97,30 %
01.03.2017 18:42 6,7 C 67 % 1009,6 hPa 0,0 l/m 3,0 km/h (1 Bft) S-SW 199 0 min 0,000 mm 0,0 UV-I 0 W/m 1,0 C 6,7 C 4,8 km/h (1 Bft) 96,00 %
01.03.2017 18:44 6,7 C 67 % 1009,6 hPa 0,0 l/m 1,9 km/h (1 Bft) S-SW 199 0 min 0,000 mm 0,0 UV-I 0 W/m 1,0 C 6,7 C 3,2 km/h (1 Bft) 93,62 %
01.03.2017 18:46 6,7 C 68 % 1009,6 hPa 0,0 l/m 2,1 km/h (1 Bft) S-SW 199 0 min 0,000 mm 0,0 UV-I 0 W/m 1,2 C 6,7 C 4,8 km/h (1 Bft) 91,49 %
01.03.2017 18:48 6,7 C 67 % 1009,7 hPa 0,0 l/m 3,4 km/h (1 Bft) S-SW 199 0 min 0,000 mm 0,0 UV-I 0 W/m 1,0 C 6,7 C 4,8 km/h (1 Bft) 93,62 %
01.03.2017 18:50 6,7 C 68 % 1009,7 hPa 0,0 l/m 2,7 km/h (1 Bft) S-SW 199 0 min 0,000 mm 0,0 UV-I 0 W/m 1,2 C 6,7 C 4,8 km/h (1 Bft) 97,87 %
01.03.2017 18:52 6,7 C 67 % 1009,7 hPa 0,0 l/m 1,9 km/h (1 Bft) S-SW 199 0 min 0,000 mm 0,0 UV-I 0 W/m 1,0 C 6,7 C 4,8 km/h (1 Bft) 97,92 %
01.03.2017 18:54 6,7 C 67 % 1009,6 hPa 0,0 l/m 1,3 km/h (1 Bft) S-SW 199 0 min 0,000 mm 0,0 UV-I 0 W/m 1,0 C 6,7 C 3,2 km/h (1 Bft) 89,36 %
01.03.2017 18:56 6,7 C 67 % 1009,6 hPa 0,0 l/m 0,7 km/h (0 Bft) S-SW 199 0 min 0,000 mm 0,0 UV-I 0 W/m 1,0 C 6,7 C 3,2 km/h (1 Bft) 95,74 %
01.03.2017 18:58 6,6 C 68 % 1009,5 hPa 0,0 l/m 0,2 km/h (0 Bft) S-SW 199 0 min 0,000 mm 0,0 UV-I 0 W/m 1,1 C 6,6 C 1,6 km/h (1 Bft) 95,74 %
01.03.2017 19:00 6,5 C 68 % 1009,5 hPa 0,0 l/m 1,8 km/h (1 Bft) S-SW 199 0 min 0,000 mm 0,0 UV-I 0 W/m 1,0 C 6,5 C 3,2 km/h (1 Bft) 95,74 %
01.03.2017 19:02 6,5 C 68 % 1009,6 hPa 0,0 l/m 2,4 km/h (1 Bft) S-SW 199 0 min 0,025 mm 0,0 UV-I 0 W/m 1,0 C 6,5 C 4,8 km/h (1 Bft) 93,62 %
01.03.2017 19:04 6,6 C 68 % 1009,6 hPa 0,0 l/m 2,2 km/h (1 Bft) S-SW 199 0 min 0,000 mm 0,0 UV-I 0 W/m 1,1 C 6,6 C 3,2 km/h (1 Bft) 91,49 %
01.03.2017 19:06 6,5 C 68 % 1009,6 hPa 0,0 l/m 0,7 km/h (0 Bft) S-SW 199 0 min 0,000 mm 0,0 UV-I 0 W/m 1,0 C 6,5 C 3,2 km/h (1 Bft) 100,00 %
01.03.2017 19:08 6,5 C 68 % 1009,5 hPa 0,0 l/m 1,0 km/h (0 Bft) S-SW 199 0 min 0,000 mm 0,0 UV-I 0 W/m 1,0 C 6,5 C 3,2 km/h (1 Bft) 97,87 %
01.03.2017 19:10 6,4 C 70 % 1009,6 hPa 0,0 l/m 2,2 km/h (1 Bft) S-SW 198 0 min 0,000 mm 0,0 UV-I 0 W/m 1,3 C 6,4 C 4,8 km/h (1 Bft) 93,62 %
01.03.2017 19:12 6,4 C 69 % 1009,6 hPa 0,0 l/m 1,5 km/h (1 Bft) S-SW 197 0 min 0,000 mm 0,0 UV-I 0 W/m 1,1 C 6,4 C 3,2 km/h (1 Bft) 91,49 %
01.03.2017 19:14 6,5 C 68 % 1009,6 hPa 0,0 l/m 3,4 km/h (1 Bft) S 190 0 min 0,000 mm 0,0 UV-I 0 W/m 1,0 C 6,5 C 6,4 km/h (2 Bft) 95,74 %
01.03.2017 19:16 6,6 C 68 % 1009,7 hPa 0,0 l/m 4,5 km/h (1 Bft) S 190 0 min 0,000 mm 0,0 UV-I 0 W/m 1,1 C 6,6 C 4,8 km/h (1 Bft) 95,74 %
01.03.2017 19:18 6,6 C 68 % 1009,7 hPa 0,0 l/m 4,0 km/h (1 Bft) S 191 0 min 0,000 mm 0,0 UV-I 0 W/m 1,1 C 6,6 C 6,4 km/h (2 Bft) 91,84 %
01.03.2017 19:20 6,6 C 68 % 1009,8 hPa 0,0 l/m 4,5 km/h (1 Bft) SW 219 0 min 0,000 mm 0,0 UV-I 0 W/m 1,1 C 6,6 C 6,4 km/h (2 Bft) 93,62 %
01.03.2017 19:22 6,6 C 68 % 1009,8 hPa 0,0 l/m 4,1 km/h (1 Bft) S-SW 207 0 min 0,000 mm 0,0 UV-I 0 W/m 1,1 C 6,6 C 6,4 km/h (2 Bft) 98,00 %
01.03.2017 19:24 6,6 C 68 % 1009,7 hPa 0,0 l/m 3,8 km/h (1 Bft) S-SW 205 0 min 0,000 mm 0,0 UV-I 0 W/m 1,1 C 6,6 C 6,4 km/h (2 Bft) 93,62 %
01.03.2017 19:26 6,6 C 68 % 1009,7 hPa 0,0 l/m 4,3 km/h (1 Bft) S-SW 205 0 min 0,000 mm 0,0 UV-I 0 W/m 1,1 C 6,6 C 6,4 km/h (2 Bft) 95,74 %
01.03.2017 19:28 6,6 C 68 % 1009,7 hPa 0,0 l/m 4,9 km/h (1 Bft) S-SW 205 0 min 0,000 mm 0,0 UV-I 0 W/m 1,1 C 6,6 C 8,0 km/h (2 Bft) 97,30 %
01.03.2017 19:30 6,6 C 68 % 1009,7 hPa 0,0 l/m 4,6 km/h (1 Bft) S-SW 205 0 min 0,000 mm 0,0 UV-I 0 W/m 1,1 C 6,6 C 6,4 km/h (2 Bft) 97,92 %
01.03.2017 19:32 6,5 C 68 % 1009,7 hPa 0,0 l/m 3,7 km/h (1 Bft) S-SW 201 0 min 0,000 mm 0,0 UV-I 0 W/m 1,0 C 6,5 C 6,4 km/h (2 Bft) 95,74 %
01.03.2017 19:34 6,5 C 68 % 1009,7 hPa 0,0 l/m 2,9 km/h (1 Bft) S-SW 192 0 min 0,000 mm 0,0 UV-I 0 W/m 1,0 C 6,5 C 6,4 km/h (2 Bft) 91,49 %
01.03.2017 19:36 6,6 C 67 % 1009,6 hPa 0,0 l/m 2,8 km/h (1 Bft) S 173 0 min 0,000 mm 0,0 UV-I 0 W/m 0,9 C 6,6 C 6,4 km/h (2 Bft) 98,11 %
01.03.2017 19:38 6,6 C 67 % 1009,7 hPa 0,0 l/m 4,5 km/h (1 Bft) S 171 0 min 0,000 mm 0,0 UV-I 0 W/m 0,9 C 6,6 C 8,0 km/h (2 Bft) 93,62 %
01.03.2017 19:40 6,6 C 67 % 1009,7 hPa 0,0 l/m 4,0 km/h (1 Bft) S 176 0 min 0,000 mm 0,0 UV-I 0 W/m 0,9 C 6,6 C 6,4 km/h (2 Bft) 95,74 %
01.03.2017 19:42 6,6 C 67 % 1009,6 hPa 0,0 l/m 3,8 km/h (1 Bft) S 178 0 min 0,000 mm 0,0 UV-I 0 W/m 0,9 C 6,6 C 8,0 km/h (2 Bft) 97,87 %
01.03.2017 19:44 6,6 C 67 % 1009,7 hPa 0,0 l/m 3,8 km/h (1 Bft) S 181 0 min 0,000 mm 0,0 UV-I 0 W/m 0,9 C 6,6 C 6,4 km/h (2 Bft) 95,74 %
01.03.2017 19:46 6,6 C 67 % 1009,7 hPa 0,0 l/m 3,5 km/h (1 Bft) S 189 0 min 0,000 mm 0,0 UV-I 0 W/m 0,9 C 6,6 C 6,4 km/h (2 Bft) 95,74 %
01.03.2017 19:48 6,6 C 67 % 1009,7 hPa 0,0 l/m 4,4 km/h (1 Bft) S-SO 167 0 min 0,000 mm 0,0 UV-I 0 W/m 0,9 C 6,6 C 9,7 km/h (2 Bft) 98,00 %
01.03.2017 19:50 6,6 C 66 % 1009,7 hPa 0,0 l/m 4,2 km/h (1 Bft) S-SW 192 0 min 0,000 mm 0,0 UV-I 0 W/m 0,7 C 6,6 C 8,0 km/h (2 Bft) 95,74 %
01.03.2017 19:52 6,6 C 66 % 1009,8 hPa 0,0 l/m 4,9 km/h (1 Bft) S 186 0 min 0,000 mm 0,0 UV-I 0 W/m 0,7 C 6,6 C 11,3 km/h (2 Bft) 97,14 %
01.03.2017 19:54 6,7 C 66 % 1009,8 hPa 0,0 l/m 3,4 km/h (1 Bft) S-SO 165 0 min 0,000 mm 0,0 UV-I 0 W/m 0,8 C 6,7 C 8,0 km/h (2 Bft) 93,62 %
01.03.2017 19:56 6,7 C 66 % 1009,8 hPa 0,0 l/m 3,7 km/h (1 Bft) S 175 0 min 0,000 mm 0,0 UV-I 0 W/m 0,8 C 6,7 C 6,4 km/h (2 Bft) 97,87 %
01.03.2017 19:58 6,7 C 66 % 1009,8 hPa 0,0 l/m 4,2 km/h (1 Bft) S-SW 200 0 min 0,000 mm 0,0 UV-I 0 W/m 0,8 C 6,7 C 9,7 km/h (2 Bft) 95,74 %
01.03.2017 20:00 6,7 C 65 % 1009,8 hPa 0,0 l/m 4,5 km/h (1 Bft) S 186 0 min 0,000 mm 0,0 UV-I 0 W/m 0,6 C 6,7 C 8,0 km/h (2 Bft) 98,00 %
01.03.2017 20:02 6,6 C 66 % 1009,8 hPa 0,0 l/m 4,6 km/h (1 Bft) S 188 0 min 0,026 mm 0,0 UV-I 0 W/m 0,7 C 6,6 C 6,4 km/h (2 Bft) 98,00 %
01.03.2017 20:04 6,5 C 67 % 1009,8 hPa 0,0 l/m 3,1 km/h (1 Bft) S-SW 200 0 min 0,000 mm 0,0 UV-I 0 W/m 0,8 C 6,5 C 6,4 km/h (2 Bft) 96,00 %
01.03.2017 20:06 6,4 C 68 % 1009,8 hPa 0,0 l/m 2,0 km/h (1 Bft) S-SW 200 0 min 0,000 mm 0,0 UV-I 0 W/m 0,9 C 6,4 C 4,8 km/h (1 Bft) 93,62 %
01.03.2017 20:08 6,4 C 68 % 1009,8 hPa 0,0 l/m 2,7 km/h (1 Bft) S-SW 200 0 min 0,000 mm 0,0 UV-I 0 W/m 0,9 C 6,4 C 6,4 km/h (2 Bft) 100,00 %
01.03.2017 20:10 6,3 C 67 % 1009,8 hPa 0,0 l/m 4,0 km/h (1 Bft) S-SW 194 0 min 0,000 mm 0,0 UV-I 0 W/m 0,6 C 6,3 C 8,0 km/h (2 Bft) 97,44 %
01.03.2017 20:12 6,3 C 68 % 1009,8 hPa 0,0 l/m 4,4 km/h (1 Bft) S-SW 194 0 min 0,000 mm 0,0 UV-I 0 W/m 0,8 C 6,3 C 6,4 km/h (2 Bft) 96,00 %
01.03.2017 20:14 6,3 C 68 % 1009,8 hPa 0,0 l/m 4,4 km/h (1 Bft) S-SW 195 0 min 0,000 mm 0,0 UV-I 0 W/m 0,8 C 6,3 C 8,0 km/h (2 Bft) 95,74 %
01.03.2017 20:16 6,3 C 68 % 1009,8 hPa 0,0 l/m 3,6 km/h (1 Bft) S-SW 195 0 min 0,000 mm 0,0 UV-I 0 W/m 0,8 C 6,3 C 4,8 km/h (1 Bft) 95,74 %
01.03.2017 20:18 6,2 C 69 % 1009,8 hPa 0,0 l/m 3,9 km/h (1 Bft) S-SW 195 0 min 0,000 mm 0,0 UV-I 0 W/m 0,9 C 6,2 C 4,8 km/h (1 Bft) 95,74 %
01.03.2017 20:20 6,2 C 69 % 1009,8 hPa 0,0 l/m 3,1 km/h (1 Bft) S-SW 195 0 min 0,000 mm 0,0 UV-I 0 W/m 0,9 C 6,2 C 4,8 km/h (1 Bft) 95,74 %
01.03.2017 20:22 6,2 C 69 % 1009,8 hPa 0,0 l/m 5,2 km/h (1 Bft) S-SW 199 0 min 0,000 mm 0,0 UV-I 0 W/m 0,9 C 6,2 C 6,4 km/h (2 Bft) 97,87 %
01.03.2017 20:24 6,2 C 70 % 1009,8 hPa 0,0 l/m 4,4 km/h (1 Bft) S-SW 211 0 min 0,000 mm 0,0 UV-I 0 W/m 1,1 C 6,2 C 6,4 km/h (2 Bft) 95,74 %
01.03.2017 20:26 6,1 C 69 % 1009,9 hPa 0,0 l/m 5,3 km/h (1 Bft) S-SW 211 0 min 0,000 mm 0,0 UV-I 0 W/m 0,8 C 6,1 C 8,0 km/h (2 Bft) 95,74 %
01.03.2017 20:28 6,2 C 69 % 1009,8 hPa 0,0 l/m 3,1 km/h (1 Bft) S-SW 211 0 min 0,000 mm 0,0 UV-I 0 W/m 0,9 C 6,2 C 4,8 km/h (1 Bft) 96,00 %
01.03.2017 20:30 6,1 C 70 % 1009,8 hPa 0,0 l/m 3,4 km/h (1 Bft) S 182 0 min 0,000 mm 0,0 UV-I 0 W/m 1,0 C 6,1 C 6,4 km/h (2 Bft) 93,62 %
01.03.2017 20:32 6,1 C 69 % 1009,8 hPa 0,0 l/m 3,9 km/h (1 Bft) S 190 0 min 0,000 mm 0,0 UV-I 0 W/m 0,8 C 6,1 C 6,4 km/h (2 Bft) 95,74 %
01.03.2017 20:34 6,1 C 69 % 1009,8 hPa 0,0 l/m 4,4 km/h (1 Bft) SW 219 0 min 0,000 mm 0,0 UV-I 0 W/m 0,8 C 6,1 C 8,0 km/h (2 Bft) 95,74 %
01.03.2017 20:36 6,1 C 69 % 1009,9 hPa 0,0 l/m 4,1 km/h (1 Bft) SW 219 0 min 0,000 mm 0,0 UV-I 0 W/m 0,8 C 6,1 C 6,4 km/h (2 Bft) 91,49 %
01.03.2017 20:38 6,1 C 69 % 1009,8 hPa 0,0 l/m 3,6 km/h (1 Bft) SW 218 0 min 0,000 mm 0,0 UV-I 0 W/m 0,8 C 6,1 C 6,4 km/h (2 Bft) 93,62 %
01.03.2017 20:40 6,1 C 69 % 1009,8 hPa 0,0 l/m 3,0 km/h (1 Bft) S-SW 196 0 min 0,000 mm 0,0 UV-I 0 W/m 0,8 C 6,1 C 4,8 km/h (1 Bft) 97,87 %
01.03.2017 20:42 6,0 C 69 % 1009,7 hPa 0,0 l/m 4,3 km/h (1 Bft) S-SW 196 0 min 0,000 mm 0,0 UV-I 0 W/m 0,8 C 6,0 C 6,4 km/h (2 Bft) 97,87 %
01.03.2017 20:44 5,9 C 70 % 1009,8 hPa 0,0 l/m 4,7 km/h (1 Bft) S-SW 201 0 min 0,000 mm 0,0 UV-I 0 W/m 0,9 C 5,9 C 6,4 km/h (2 Bft) 95,74 %
01.03.2017 20:46 5,9 C 70 % 1009,7 hPa 0,0 l/m 5,1 km/h (1 Bft) S-SW 205 0 min 0,000 mm 0,0 UV-I 0 W/m 0,9 C 5,9 C 8,0 km/h (2 Bft) 97,37 %
01.03.2017 20:48 5,9 C 70 % 1009,7 hPa 0,0 l/m 4,6 km/h (1 Bft) S-SW 208 0 min 0,000 mm 0,0 UV-I 0 W/m 0,9 C 5,9 C 8,0 km/h (2 Bft) 95,74 %
01.03.2017 20:50 5,9 C 69 % 1009,8 hPa 0,0 l/m 4,4 km/h (1 Bft) SW 220 0 min 0,000 mm 0,0 UV-I 0 W/m 0,7 C 5,9 C 6,4 km/h (2 Bft) 95,83 %
01.03.2017 20:52 5,9 C 69 % 1009,8 hPa 0,0 l/m 5,3 km/h (1 Bft) SW 226 0 min 0,000 mm 0,0 UV-I 0 W/m 0,7 C 5,9 C 6,4 km/h (2 Bft) 97,87 %
01.03.2017 20:54 5,9 C 69 % 1009,8 hPa 0,0 l/m 4,9 km/h (1 Bft) SW 236 0 min 0,000 mm 0,0 UV-I 0 W/m 0,7 C 5,9 C 6,4 km/h (2 Bft) 95,74 %
01.03.2017 20:56 5,9 C 69 % 1009,8 hPa 0,0 l/m 5,7 km/h (1 Bft) W-SW 237 0 min 0,000 mm 0,0 UV-I 0 W/m 0,7 C 5,9 C 9,7 km/h (2 Bft) 95,74 %
01.03.2017 20:58 5,9 C 69 % 1009,8 hPa 0,0 l/m 4,1 km/h (1 Bft) W-SW 252 0 min 0,000 mm 0,0 UV-I 0 W/m 0,7 C 5,9 C 6,4 km/h (2 Bft) 95,74 %
01.03.2017 21:00 5,9 C 69 % 1009,8 hPa 0,0 l/m 4,0 km/h (1 Bft) W-SW 248 0 min 0,000 mm 0,0 UV-I 0 W/m 0,7 C 5,9 C 4,8 km/h (1 Bft) 95,74 %
01.03.2017 21:02 5,8 C 70 % 1009,8 hPa 0,0 l/m 5,3 km/h (1 Bft) W-SW 250 0 min 0,025 mm 0,0 UV-I 0 W/m 0,8 C 5,8 C 11,3 km/h (2 Bft) 97,87 %
01.03.2017 21:04 5,8 C 69 % 1009,8 hPa 0,0 l/m 9,7 km/h (2 Bft) W-SW 247 0 min 0,000 mm 0,0 UV-I 0 W/m 0,6 C 3,2 C 16,1 km/h (3 Bft) 97,87 %
01.03.2017 21:06 6,0 C 68 % 1009,8 hPa 0,0 l/m 8,3 km/h (2 Bft) W-SW 238 0 min 0,000 mm 0,0 UV-I 0 W/m 0,6 C 4,4 C 14,5 km/h (3 Bft) 100,00 %
01.03.2017 21:08 6,1 C 67 % 1009,8 hPa 0,0 l/m 12,4 km/h (3 Bft) SW 226 0 min 0,000 mm 0,0 UV-I 0 W/m 0,4 C 1,8 C 19,3 km/h (3 Bft) 96,00 %
01.03.2017 21:10 6,2 C 66 % 1009,9 hPa 0,0 l/m 13,6 km/h (3 Bft) W-SW 246 0 min 0,000 mm 0,0 UV-I 0 W/m 0,3 C 1,2 C 22,5 km/h (4 Bft) 95,74 %
01.03.2017 21:12 6,4 C 65 % 1009,8 hPa 0,0 l/m 14,7 km/h (3 Bft) W 262 0 min 0,000 mm 0,0 UV-I 0 W/m 0,3 C 0,9 C 20,9 km/h (4 Bft) 97,87 %
01.03.2017 21:14 6,5 C 65 % 1009,9 hPa 0,0 l/m 11,3 km/h (2 Bft) SW 232 0 min 0,000 mm 0,0 UV-I 0 W/m 0,4 C 2,9 C 17,7 km/h (3 Bft) 93,62 %
01.03.2017 21:16 6,5 C 65 % 1009,8 hPa 0,0 l/m 9,5 km/h (2 Bft) S-SW 207 0 min 0,000 mm 0,0 UV-I 0 W/m 0,4 C 4,1 C 14,5 km/h (3 Bft) 89,36 %
01.03.2017 21:18 6,4 C 65 % 1009,8 hPa 0,0 l/m 8,6 km/h (2 Bft) S-SW 201 0 min 0,000 mm 0,0 UV-I 0 W/m 0,3 C 4,6 C 12,9 km/h (3 Bft) 97,87 %
01.03.2017 21:20 6,4 C 65 % 1009,8 hPa 0,0 l/m 10,1 km/h (2 Bft) S-SW 208 0 min 0,000 mm 0,0 UV-I 0 W/m 0,3 C 3,6 C 14,5 km/h (3 Bft) 97,87 %
01.03.2017 21:22 6,3 C 65 % 1009,8 hPa 0,0 l/m 6,5 km/h (2 Bft) S-SW 213 0 min 0,000 mm 0,0 UV-I 0 W/m 0,2 C 6,2 C 11,3 km/h (2 Bft) 93,62 %
01.03.2017 21:24 6,1 C 66 % 1009,8 hPa 0,0 l/m 5,9 km/h (2 Bft) SW 216 0 min 0,000 mm 0,0 UV-I 0 W/m 0,2 C 6,1 C 11,3 km/h (2 Bft) 97,87 %
01.03.2017 21:26 6,0 C 67 % 1009,8 hPa 0,0 l/m 6,5 km/h (2 Bft) S-SW 209 0 min 0,000 mm 0,0 UV-I 0 W/m 0,3 C 5,9 C 8,0 km/h (2 Bft) 100,00 %
01.03.2017 21:28 5,8 C 68 % 1009,7 hPa 0,0 l/m 6,0 km/h (2 Bft) S-SW 202 0 min 0,000 mm 0,0 UV-I 0 W/m 0,4 C 5,8 C 8,0 km/h (2 Bft) 95,83 %
01.03.2017 21:30 5,7 C 68 % 1009,8 hPa 0,0 l/m 5,8 km/h (2 Bft) SW 215 0 min 0,000 mm 0,0 UV-I 0 W/m 0,3 C 5,7 C 9,7 km/h (2 Bft) 100,00 %
01.03.2017 21:32 5,6 C 69 % 1009,8 hPa 0,0 l/m 5,7 km/h (1 Bft) S-SW 208 0 min 0,000 mm 0,0 UV-I 0 W/m 0,4 C 5,6 C 8,0 km/h (2 Bft) 97,87 %
01.03.2017 21:34 5,6 C 69 % 1009,8 hPa 0,0 l/m 5,8 km/h (2 Bft) S-SW 205 0 min 0,000 mm 0,0 UV-I 0 W/m 0,4 C 5,6 C 8,0 km/h (2 Bft) 100,00 %
01.03.2017 21:36 5,4 C 69 % 1009,8 hPa 0,0 l/m 4,1 km/h (1 Bft) S-SW 204 0 min 0,000 mm 0,0 UV-I 0 W/m 0,2 C 5,4 C 6,4 km/h (2 Bft) 97,87 %
01.03.2017 21:38 5,4 C 69 % 1009,8 hPa 0,0 l/m 3,8 km/h (1 Bft) S-SW 204 0 min 0,000 mm 0,0 UV-I 0 W/m 0,2 C 5,4 C 6,4 km/h (2 Bft) 100,00 %
01.03.2017 21:40 5,3 C 69 % 1009,8 hPa 0,0 l/m 2,4 km/h (1 Bft) S 190 0 min 0,000 mm 0,0 UV-I 0 W/m 0,1 C 5,3 C 3,2 km/h (1 Bft) 100,00 %
01.03.2017 21:42 5,3 C 70 % 1009,8 hPa 0,0 l/m 2,7 km/h (1 Bft) S 178 0 min 0,000 mm 0,0 UV-I 0 W/m 0,3 C 5,3 C 4,8 km/h (1 Bft) 95,74 %
01.03.2017 21:44 5,3 C 70 % 1009,8 hPa 0,0 l/m 3,3 km/h (1 Bft) S 170 0 min 0,000 mm 0,0 UV-I 0 W/m 0,3 C 5,3 C 8,0 km/h (2 Bft) 95,74 %
01.03.2017 21:46 5,3 C 70 % 1009,8 hPa 0,0 l/m 4,0 km/h (1 Bft) S 170 0 min 0,000 mm 0,0 UV-I 0 W/m 0,3 C 5,3 C 8,0 km/h (2 Bft) 96,00 %
01.03.2017 21:48 5,3 C 70 % 1009,8 hPa 0,0 l/m 4,6 km/h (1 Bft) S 174 0 min 0,000 mm 0,0 UV-I 0 W/m 0,3 C 5,3 C 8,0 km/h (2 Bft) 100,00 %
01.03.2017 21:50 5,3 C 70 % 1009,7 hPa 0,0 l/m 2,8 km/h (1 Bft) S 173 0 min 0,000 mm 0,0 UV-I 0 W/m 0,3 C 5,3 C 4,8 km/h (1 Bft) 97,87 %
01.03.2017 21:52 5,3 C 69 % 1009,7 hPa 0,0 l/m 3,3 km/h (1 Bft) S-SO 167 0 min 0,000 mm 0,0 UV-I 0 W/m 0,1 C 5,3 C 6,4 km/h (2 Bft) 100,00 %
01.03.2017 21:54 5,3 C 69 % 1009,7 hPa 0,0 l/m 3,1 km/h (1 Bft) S-SO 165 0 min 0,000 mm 0,0 UV-I 0 W/m 0,1 C 5,3 C 6,4 km/h (2 Bft) 97,87 %
01.03.2017 21:56 5,3 C 69 % 1009,7 hPa 0,0 l/m 2,2 km/h (1 Bft) S 171 0 min 0,000 mm 0,0 UV-I 0 W/m 0,1 C 5,3 C 3,2 km/h (1 Bft) 98,00 %
01.03.2017 21:58 5,3 C 69 % 1009,7 hPa 0,0 l/m 2,1 km/h (1 Bft) S 171 0 min 0,000 mm 0,0 UV-I 0 W/m 0,1 C 5,3 C 3,2 km/h (1 Bft) 97,87 %
01.03.2017 22:00 5,2 C 70 % 1009,6 hPa 0,0 l/m 1,6 km/h (1 Bft) S 171 0 min 0,000 mm 0,0 UV-I 0 W/m 0,2 C 5,2 C 6,4 km/h (2 Bft) 100,00 %
01.03.2017 22:02 5,2 C 69 % 1009,5 hPa 0,0 l/m 1,0 km/h (0 Bft) S 171 0 min 0,025 mm 0,0 UV-I 0 W/m -0,0 C 5,2 C 3,2 km/h (1 Bft) 98,18 %
01.03.2017 22:04 5,2 C 70 % 1009,5 hPa 0,0 l/m 0,1 km/h (0 Bft) S 171 0 min 0,000 mm 0,0 UV-I 0 W/m 0,2 C 5,2 C 1,6 km/h (1 Bft) 93,62 %
01.03.2017 22:06 5,1 C 70 % 1009,5 hPa 0,0 l/m 1,1 km/h (1 Bft) S 171 0 min 0,000 mm 0,0 UV-I 0 W/m 0,1 C 5,1 C 3,2 km/h (1 Bft) 100,00 %
01.03.2017 22:08 4,9 C 70 % 1009,5 hPa 0,0 l/m 1,2 km/h (1 Bft) S 171 0 min 0,000 mm 0,0 UV-I 0 W/m -0,1 C 4,9 C 3,2 km/h (1 Bft) 97,87 %
01.03.2017 22:10 4,8 C 71 % 1009,5 hPa 0,0 l/m 1,4 km/h (1 Bft) S 171 0 min 0,000 mm 0,0 UV-I 0 W/m -0,0 C 4,8 C 3,2 km/h (1 Bft) 100,00 %
01.03.2017 22:12 4,6 C 72 % 1009,4 hPa 0,0 l/m 0,8 km/h (0 Bft) S 171 0 min 0,000 mm 0,0 UV-I 0 W/m -0,0 C 4,6 C 1,6 km/h (1 Bft) 97,44 %
01.03.2017 22:14 4,3 C 73 % 1009,4 hPa 0,0 l/m 1,6 km/h (1 Bft) S 171 0 min 0,000 mm 0,0 UV-I 0 W/m -0,1 C 4,3 C 6,4 km/h (2 Bft) 97,87 %
01.03.2017 22:16 4,2 C 74 % 1009,4 hPa 0,0 l/m 1,7 km/h (1 Bft) S 171 0 min 0,000 mm 0,0 UV-I 0 W/m -0,0 C 4,2 C 3,2 km/h (1 Bft) 100,00 %
01.03.2017 22:18 4,2 C 74 % 1009,4 hPa 0,0 l/m 0,0 km/h (0 Bft) S 171 0 min 0,000 mm 0,0 UV-I 0 W/m -0,0 C 4,2 C 1,6 km/h (1 Bft) 94,00 %
01.03.2017 22:20 4,1 C 75 % 1009,5 hPa 0,0 l/m 0,3 km/h (0 Bft) S 171 0 min 0,000 mm 0,0 UV-I 0 W/m 0,1 C 4,1 C 3,2 km/h (1 Bft) 100,00 %
01.03.2017 22:22 4,1 C 75 % 1009,4 hPa 0,0 l/m 2,1 km/h (1 Bft) S 171 0 min 0,000 mm 0,0 UV-I 0 W/m 0,1 C 4,1 C 3,2 km/h (1 Bft) 98,00 %
01.03.2017 22:24 4,1 C 76 % 1009,4 hPa 0,0 l/m 1,5 km/h (1 Bft) S 171 0 min 0,000 mm 0,0 UV-I 0 W/m 0,3 C 4,1 C 6,4 km/h (2 Bft) 97,87 %
01.03.2017 22:26 4,0 C 76 % 1009,4 hPa 0,0 l/m 2,1 km/h (1 Bft) S 170 0 min 0,000 mm 0,0 UV-I 0 W/m 0,2 C 4,0 C 6,4 km/h (2 Bft) 100,00 %
01.03.2017 22:28 4,1 C 75 % 1009,3 hPa 0,0 l/m 2,0 km/h (1 Bft) SO 145 0 min 0,000 mm 0,0 UV-I 0 W/m 0,1 C 4,1 C 6,4 km/h (2 Bft) 96,00 %
01.03.2017 22:30 4,2 C 75 % 1009,3 hPa 0,0 l/m 3,7 km/h (1 Bft) SO 142 0 min 0,000 mm 0,0 UV-I 0 W/m 0,2 C 4,2 C 6,4 km/h (2 Bft) 96,00 %
01.03.2017 22:32 4,2 C 75 % 1009,3 hPa 0,0 l/m 3,2 km/h (1 Bft) S-SO 153 0 min 0,000 mm 0,0 UV-I 0 W/m 0,2 C 4,2 C 6,4 km/h (2 Bft) 100,00 %
01.03.2017 22:34 4,2 C 76 % 1009,2 hPa 0,0 l/m 3,7 km/h (1 Bft) SO 146 0 min 0,000 mm 0,0 UV-I 0 W/m 0,4 C 4,2 C 6,4 km/h (2 Bft) 95,74 %
01.03.2017 22:36 4,3 C 75 % 1009,3 hPa 0,0 l/m 3,4 km/h (1 Bft) S-SO 153 0 min 0,000 mm 0,0 UV-I 0 W/m 0,3 C 4,3 C 8,0 km/h (2 Bft) 98,00 %
01.03.2017 22:38 4,4 C 74 % 1009,3 hPa 0,0 l/m 4,3 km/h (1 Bft) S-SO 153 0 min 0,000 mm 0,0 UV-I 0 W/m 0,2 C 4,4 C 8,0 km/h (2 Bft) 97,87 %
01.03.2017 22:40 4,6 C 74 % 1009,3 hPa 0,0 l/m 3,5 km/h (1 Bft) S-SO 158 0 min 0,000 mm 0,0 UV-I 0 W/m 0,4 C 4,6 C 4,8 km/h (1 Bft) 95,74 %
01.03.2017 22:42 4,5 C 74 % 1009,3 hPa 0,0 l/m 2,0 km/h (1 Bft) S-SO 159 0 min 0,000 mm 0,0 UV-I 0 W/m 0,3 C 4,5 C 6,4 km/h (2 Bft) 94,59 %
01.03.2017 22:44 4,5 C 74 % 1009,3 hPa 0,0 l/m 0,9 km/h (0 Bft) S-SO 159 0 min 0,000 mm 0,0 UV-I 0 W/m 0,3 C 4,5 C 3,2 km/h (1 Bft) 95,74 %
01.03.2017 22:46 4,6 C 74 % 1009,3 hPa 0,0 l/m 1,5 km/h (1 Bft) S-SO 159 0 min 0,000 mm 0,0 UV-I 0 W/m 0,4 C 4,6 C 3,2 km/h (1 Bft) 97,87 %
01.03.2017 22:48 4,6 C 73 % 1009,2 hPa 0,0 l/m 1,3 km/h (1 Bft) S-SO 159 0 min 0,000 mm 0,0 UV-I 0 W/m 0,2 C 4,6 C 3,2 km/h (1 Bft) 93,62 %
01.03.2017 22:50 4,6 C 73 % 1009,1 hPa 0,0 l/m 2,8 km/h (1 Bft) S-SO 156 0 min 0,000 mm 0,0 UV-I 0 W/m 0,2 C 4,6 C 8,0 km/h (2 Bft) 93,75 %
01.03.2017 22:52 4,6 C 73 % 1009,0 hPa 0,0 l/m 4,9 km/h (1 Bft) SO 145 0 min 0,000 mm 0,0 UV-I 0 W/m 0,2 C 4,6 C 9,7 km/h (2 Bft) 95,74 %
01.03.2017 22:54 4,6 C 73 % 1009,1 hPa 0,0 l/m 3,5 km/h (1 Bft) S-SO 156 0 min 0,000 mm 0,0 UV-I 0 W/m 0,2 C 4,6 C 8,0 km/h (2 Bft) 97,87 %
01.03.2017 22:56 4,6 C 73 % 1009,0 hPa 0,0 l/m 3,8 km/h (1 Bft) S-SO 166 0 min 0,000 mm 0,0 UV-I 0 W/m 0,2 C 4,6 C 8,0 km/h (2 Bft) 93,62 %
01.03.2017 22:58 4,6 C 73 % 1009,0 hPa 0,0 l/m 2,2 km/h (1 Bft) SO 146 0 min 0,000 mm 0,0 UV-I 0 W/m 0,2 C 4,6 C 6,4 km/h (2 Bft) 96,00 %
01.03.2017 23:00 4,6 C 73 % 1009,0 hPa 0,0 l/m 1,0 km/h (0 Bft) SO 146 0 min 0,000 mm 0,0 UV-I 0 W/m 0,2 C 4,6 C 3,2 km/h (1 Bft) 97,96 %
01.03.2017 23:02 4,5 C 74 % 1009,0 hPa 0,0 l/m 1,8 km/h (1 Bft) SO 146 0 min 0,000 mm 0,0 UV-I 0 W/m 0,3 C 4,5 C 3,2 km/h (1 Bft) 92,11 %
01.03.2017 23:04 4,4 C 75 % 1009,0 hPa 0,0 l/m 0,6 km/h (0 Bft) SO 146 0 min 0,000 mm 0,0 UV-I 0 W/m 0,4 C 4,4 C 3,2 km/h (1 Bft) 97,87 %
01.03.2017 23:06 4,4 C 74 % 1008,9 hPa 0,0 l/m 1,7 km/h (1 Bft) SO 146 0 min 0,000 mm 0,0 UV-I 0 W/m 0,2 C 4,4 C 3,2 km/h (1 Bft) 93,62 %
01.03.2017 23:08 4,4 C 74 % 1008,8 hPa 0,0 l/m 1,7 km/h (1 Bft) SO 142 0 min 0,000 mm 0,0 UV-I 0 W/m 0,2 C 4,4 C 3,2 km/h (1 Bft) 95,74 %
01.03.2017 23:10 4,5 C 74 % 1008,9 hPa 0,0 l/m 2,7 km/h (1 Bft) SO 139 0 min 0,000 mm 0,0 UV-I 0 W/m 0,3 C 4,5 C 4,8 km/h (1 Bft) 97,87 %
01.03.2017 23:12 4,6 C 74 % 1008,9 hPa 0,0 l/m 2,5 km/h (1 Bft) SO 140 0 min 0,000 mm 0,0 UV-I 0 W/m 0,4 C 4,6 C 4,8 km/h (1 Bft) 94,55 %
01.03.2017 23:14 4,6 C 74 % 1008,9 hPa 0,0 l/m 1,6 km/h (1 Bft) SO 140 0 min 0,000 mm 0,0 UV-I 0 W/m 0,4 C 4,6 C 4,8 km/h (1 Bft) 97,87 %
01.03.2017 23:16 4,6 C 74 % 1008,9 hPa 0,0 l/m 0,7 km/h (0 Bft) SO 140 0 min 0,000 mm 0,0 UV-I 0 W/m 0,4 C 4,6 C 1,6 km/h (1 Bft) 95,74 %
01.03.2017 23:18 4,5 C 75 % 1008,8 hPa 0,0 l/m 1,0 km/h (0 Bft) SO 140 0 min 0,000 mm 0,0 UV-I 0 W/m 0,5 C 4,5 C 3,2 km/h (1 Bft) 95,74 %
01.03.2017 23:20 4,5 C 74 % 1008,8 hPa 0,0 l/m 2,3 km/h (1 Bft) SO 140 0 min 0,000 mm 0,0 UV-I 0 W/m 0,3 C 4,5 C 4,8 km/h (1 Bft) 94,59 %
01.03.2017 23:22 4,4 C 75 % 1008,7 hPa 0,0 l/m 1,0 km/h (0 Bft) SO 140 0 min 0,000 mm 0,0 UV-I 0 W/m 0,4 C 4,4 C 3,2 km/h (1 Bft) 93,62 %
01.03.2017 23:24 4,4 C 75 % 1008,7 hPa 0,0 l/m 0,0 km/h (0 Bft) SO 140 0 min 0,000 mm 0,0 UV-I 0 W/m 0,4 C 4,4 C 0,0 km/h (0 Bft) 100,00 %
01.03.2017 23:28 4,4 C 75 % 1008,7 hPa 0,0 l/m 0,0 km/h (0 Bft) SO 140 0 min 0,000 mm 0,0 UV-I 0 W/m 0,4 C 4,4 C 0,0 km/h (0 Bft) 94,66 %
01.03.2017 23:30 4,4 C 75 % 1008,6 hPa 0,0 l/m 0,2 km/h (0 Bft) SO 140 0 min 0,000 mm 0,0 UV-I 0 W/m 0,4 C 4,4 C 3,2 km/h (1 Bft) 96,15 %
01.03.2017 23:32 4,4 C 75 % 1008,5 hPa 0,0 l/m 1,5 km/h (1 Bft) SO 144 0 min 0,000 mm 0,0 UV-I 0 W/m 0,4 C 4,4 C 3,2 km/h (1 Bft) 96,00 %
01.03.2017 23:34 4,4 C 75 % 1008,5 hPa 0,0 l/m 1,5 km/h (1 Bft) SO 144 0 min 0,000 mm 0,0 UV-I 0 W/m 0,4 C 4,4 C 3,2 km/h (1 Bft) 94,87 %
01.03.2017 23:36 4,3 C 75 % 1008,5 hPa 0,0 l/m 2,9 km/h (1 Bft) S 178 0 min 0,000 mm 0,0 UV-I 0 W/m 0,3 C 4,3 C 4,8 km/h (1 Bft) 98,00 %
01.03.2017 23:38 4,3 C 76 % 1008,5 hPa 0,0 l/m 3,1 km/h (1 Bft) S 178 0 min 0,000 mm 0,0 UV-I 0 W/m 0,5 C 4,3 C 4,8 km/h (1 Bft) 96,00 %
01.03.2017 23:40 4,3 C 76 % 1008,5 hPa 0,0 l/m 3,0 km/h (1 Bft) S 178 0 min 0,000 mm 0,0 UV-I 0 W/m 0,5 C 4,3 C 4,8 km/h (1 Bft) 95,12 %
01.03.2017 23:42 4,2 C 76 % 1008,6 hPa 0,0 l/m 4,5 km/h (1 Bft) SW 218 0 min 0,000 mm 0,0 UV-I 0 W/m 0,4 C 4,2 C 6,4 km/h (2 Bft) 97,73 %
01.03.2017 23:44 4,2 C 77 % 1008,6 hPa 0,0 l/m 4,4 km/h (1 Bft) SW 218 0 min 0,000 mm 0,0 UV-I 0 W/m 0,5 C 4,2 C 4,8 km/h (1 Bft) 95,74 %
01.03.2017 23:46 4,2 C 77 % 1008,6 hPa 0,0 l/m 5,0 km/h (1 Bft) SW 215 0 min 0,000 mm 0,0 UV-I 0 W/m 0,5 C 4,2 C 8,0 km/h (2 Bft) 97,87 %
01.03.2017 23:48 4,2 C 78 % 1008,6 hPa 0,0 l/m 2,8 km/h (1 Bft) SW 215 0 min 0,000 mm 0,0 UV-I 0 W/m 0,7 C 4,2 C 6,4 km/h (2 Bft) 97,87 %
01.03.2017 23:50 4,2 C 77 % 1008,5 hPa 0,0 l/m 1,7 km/h (1 Bft) SW 215 0 min 0,000 mm 0,0 UV-I 0 W/m 0,5 C 4,2 C 4,8 km/h (1 Bft) 94,64 %
01.03.2017 23:52 4,2 C 77 % 1008,6 hPa 0,0 l/m 0,7 km/h (0 Bft) SW 215 0 min 0,000 mm 0,0 UV-I 0 W/m 0,5 C 4,2 C 3,2 km/h (1 Bft) 92,11 %
01.03.2017 23:54 4,2 C 77 % 1008,6 hPa 0,0 l/m 1,7 km/h (1 Bft) SW 215 0 min 0,000 mm 0,0 UV-I 0 W/m 0,5 C 4,2 C 3,2 km/h (1 Bft) 97,87 %
01.03.2017 23:56 4,2 C 77 % 1008,6 hPa 0,0 l/m 2,4 km/h (1 Bft) SW 223 0 min 0,000 mm 0,0 UV-I 0 W/m 0,5 C 4,2 C 3,2 km/h (1 Bft) 96,23 %
01.03.2017 23:58 4,2 C 78 % 1008,6 hPa 0,0 l/m 4,4 km/h (1 Bft) W 273 0 min 0,000 mm 0,0 UV-I 0 W/m 0,7 C 4,2 C 6,4 km/h (2 Bft) 97,87 %
_ Min-Zeit 06:48 16:12 00:00 - 22:18 - - - - - - 16:12 03:28 23:24 07:28
Minimum _ 2,9 C 52 % 1002,1 hPa - 0,0 km/h (0 Bft) - - - - - - -0,2 C -9,3 C 0,0 km/h (0 Bft) 89,36 %
_ Max-Zeit 15:54 03:36 20:26 03:20 03:20 - - 09:04 13:00 12:50 12:54 13:50 17:26 03:20 00:02
Maximum _ 9,7 C 88 % 1009,9 hPa 0,2 l/m 35,5 km/h
W (5 Bft)
- - 2 min 0,280 mm 1,7 UV-I 802 W/m 2,4 C 7,8 C 54,7 km/h
W (7 Bft)
100,00 %
Durchschnitt _ 5,8 C 72 % 1007,1 hPa #0,6 l/m 14,0 km/h (3 Bft) W-SW - #3:40 h #1,930 mm 0,8 UV-I 194 W/m 0,9 C 0,9 C 21,7 km/h (4 Bft) 96,97 %